Observation data for Smyer on 02/14/2020      Previous  Date  Next       Current Mesonet Observations  Soil Data  Daily Summary Page  Observations in Plain Language
KSM2 140600Z 13011KT M02/M04 A3027 RMK A01 T10221036  RH  090%=      5-min Rain = 0
KSM2 140601Z 13013KT M02/M04 A3027 RMK A01 T10221036  RH  090%=      5-min Rain = 0
KSM2 140602Z 12010KT M02/M04 A3027 RMK A01 T10221036  RH  090%=      5-min Rain = 0
KSM2 140603Z 12007KT M02/M04 A3027 RMK A01 T10221036  RH  090%=      5-min Rain = 0
KSM2 140604Z 12006KT M02/M04 A3027 RMK A01 T10221036  RH  090%=      5-min Rain = 0
KSM2 140605Z 12008KT M02/M04 A3027 RMK A01 T10221036  RH  090%=      5-min Rain = 0
KSM2 140606Z 12007KT M02/M04 A3027 RMK A01 T10221036  RH  090%=      5-min Rain = 0
KSM2 140607Z 12009KT M02/M04 A3027 RMK A01 T10231036  RH  091%=      5-min Rain = 0
KSM2 140608Z 13010KT M02/M04 A3027 RMK A01 T10231036  RH  090%=      5-min Rain = 0
KSM2 140609Z 12010KT M02/M04 A3027 RMK A01 T10231037  RH  090%=      5-min Rain = 0
KSM2 140610Z 12010KT M02/M04 A3027 RMK A01 T10231037  RH  090%=      5-min Rain = 0
KSM2 140611Z 12010G16KT M02/M04 A3026 RMK A01 T10231037  RH  090%=      5-min Rain = 0
KSM2 140612Z 12010KT M02/M04 A3027 RMK A01 T10231037  RH  090%=      5-min Rain = 0
KSM2 140613Z 12009G14KT M02/M04 A3027 RMK A01 T10231037  RH  090%=      5-min Rain = 0
KSM2 140614Z 12009KT M02/M04 A3027 RMK A01 T10231037  RH  090%=      5-min Rain = 0
KSM2 140615Z 12009KT M02/M04 A3027 RMK A01 T10231037  RH  090%=      5-min Rain = 0
KSM2 140616Z 11007KT M02/M04 A3027 RMK A01 T10231037  RH  090%=      5-min Rain = 0
KSM2 140617Z 12006KT M02/M04 A3027 RMK A01 T10231037  RH  090%=      5-min Rain = 0
KSM2 140618Z 11009KT M02/M04 A3027 RMK A01 T10241037  RH  090%=      5-min Rain = 0
KSM2 140619Z 12008KT M02/M04 A3027 RMK A01 T10241038  RH  090%=      5-min Rain = 0
KSM2 140620Z 12009G14KT M02/M04 A3027 RMK A01 T10241037  RH  090%=      5-min Rain = 0
KSM2 140621Z 12009KT M02/M04 A3027 RMK A01 T10241038  RH  090%=      5-min Rain = 0
KSM2 140622Z 12010KT M02/M04 A3027 RMK A01 T10241038  RH  090%=      5-min Rain = 0
KSM2 140623Z 12011KT M02/M04 A3027 RMK A01 T10241038  RH  090%=      5-min Rain = 0
KSM2 140624Z 12009KT M02/M04 A3027 RMK A01 T10241038  RH  090%=      5-min Rain = 0
KSM2 140625Z 13009KT M02/M04 A3027 RMK A01 T10241038  RH  090%=      5-min Rain = 0
KSM2 140626Z 12008KT M02/M04 A3027 RMK A01 T10241038  RH  090%=      5-min Rain = 0
KSM2 140627Z 12007KT M02/M04 A3027 RMK A01 T10241038  RH  090%=      5-min Rain = 0
KSM2 140628Z 12007KT M02/M04 A3027 RMK A01 T10241038  RH  090%=      5-min Rain = 0
KSM2 140629Z 12010KT M02/M04 A3027 RMK A01 T10241037  RH  090%=      5-min Rain = 0
KSM2 140630Z 12009KT M02/M04 A3027 RMK A01 T10241037  RH  090%=      5-min Rain = 0
KSM2 140631Z 12010KT M02/M04 A3027 RMK A01 T10241037  RH  090%=      5-min Rain = 0
KSM2 140632Z 12011KT M02/M04 A3027 RMK A01 T10231037  RH  090%=      5-min Rain = 0
KSM2 140633Z 12010G15KT M02/M04 A3027 RMK A01 T10241038  RH  090%=      5-min Rain = 0
KSM2 140634Z 12013KT M02/M04 A3027 RMK A01 T10231038  RH  090%=      5-min Rain = 0
KSM2 140635Z 12014KT M02/M04 A3027 RMK A01 T10231037  RH  090%=      5-min Rain = 0
KSM2 140636Z 11012KT M02/M04 A3027 RMK A01 T10231038  RH  090%=      5-min Rain = 0
KSM2 140637Z 12012KT M02/M04 A3027 RMK A01 T10231038  RH  090%=      5-min Rain = 0
KSM2 140638Z 12014G20KT M02/M04 A3027 RMK A01 T10231038  RH  089%=      5-min Rain = 0
KSM2 140639Z 11014KT M02/M04 A3027 RMK A01 T10231038  RH  089%=      5-min Rain = 0
KSM2 140640Z 12014G19KT M02/M04 A3027 RMK A01 T10231039  RH  089%=      5-min Rain = 0
KSM2 140641Z 12010KT M02/M04 A3027 RMK A01 T10231039  RH  089%=      5-min Rain = 0
KSM2 140642Z 12014KT M02/M04 A3027 RMK A01 T10231039  RH  089%=      5-min Rain = 0
KSM2 140643Z 11012KT M02/M04 A3027 RMK A01 T10231040  RH  089%=      5-min Rain = 0
KSM2 140644Z 11008KT M02/M04 A3027 RMK A01 T10231040  RH  089%=      5-min Rain = 0
KSM2 140645Z 12011KT M02/M04 A3028 RMK A01 T10231039  RH  089%=      5-min Rain = 0
KSM2 140646Z 11012KT M02/M04 A3027 RMK A01 T10231039  RH  089%=      5-min Rain = 0
KSM2 140647Z 11013KT M02/M04 A3027 RMK A01 T10231040  RH  089%=      5-min Rain = 0
KSM2 140648Z 12009KT M02/M04 A3028 RMK A01 T10231040  RH  088%=      5-min Rain = 0
KSM2 140649Z 12012KT M02/M04 A3028 RMK A01 T10231041  RH  088%=      5-min Rain = 0
KSM2 140650Z 11011G16KT M02/M04 A3028 RMK A01 T10241041  RH  088%=      5-min Rain = 0
KSM2 140651Z 12011KT M02/M04 A3028 RMK A01 T10241042  RH  088%=      5-min Rain = 0
KSM2 140652Z 12009KT M02/M04 A3028 RMK A01 T10241042  RH  088%=      5-min Rain = 0
KSM2 140653Z 12009KT M02/M04 A3028 RMK A01 T10241042  RH  088%=      5-min Rain = 0
KSM2 140654Z 11014KT M02/M04 A3028 RMK A01 T10241042  RH  088%=      5-min Rain = 0
KSM2 140655Z 11012KT M03/M04 A3028 RMK A01 T10251043  RH  087%=      5-min Rain = 0
KSM2 140656Z 12011KT M03/M04 A3028 RMK A01 T10251043  RH  087%=      5-min Rain = 0
KSM2 140657Z 12012KT M03/M04 A3028 RMK A01 T10251043  RH  087%=      5-min Rain = 0
KSM2 140658Z 12011KT M03/M04 A3028 RMK A01 T10251044  RH  087%=      5-min Rain = 0
KSM2 140659Z 12012KT M03/M04 A3028 RMK A01 T10261044  RH  087%=      5-min Rain = 0
KSM2 140700Z 12009KT M03/M04 A3028 RMK A01 T10261044  RH  087%=      5-min Rain = 0
KSM2 140701Z 12010KT M03/M04 A3028 RMK A01 T10261044  RH  087%=      5-min Rain = 0
KSM2 140702Z 12012KT M03/M04 A3028 RMK A01 T10261044  RH  087%=      5-min Rain = 0
KSM2 140703Z 12011KT M03/M05 A3028 RMK A01 T10261045  RH  087%=      5-min Rain = 0
KSM2 140704Z 12010KT M03/M05 A3028 RMK A01 T10271045  RH  087%=      5-min Rain = 0
KSM2 140705Z 12008G14KT M03/M05 A3028 RMK A01 T10271046  RH  087%=      5-min Rain = 0
KSM2 140706Z 12008KT M03/M05 A3028 RMK A01 T10281046  RH  087%=      5-min Rain = 0
KSM2 140707Z 11010KT M03/M05 A3028 RMK A01 T10281046  RH  087%=      5-min Rain = 0
KSM2 140708Z 12009KT M03/M05 A3028 RMK A01 T10281046  RH  087%=      5-min Rain = 0
KSM2 140709Z 11008KT M03/M05 A3028 RMK A01 T10291047  RH  087%=      5-min Rain = 0
KSM2 140710Z 12011KT M03/M05 A3028 RMK A01 T10291047  RH  087%=      5-min Rain = 0
KSM2 140711Z 12010KT M03/M05 A3028 RMK A01 T10301048  RH  087%=      5-min Rain = 0
KSM2 140712Z 12008KT M03/M05 A3028 RMK A01 T10291047  RH  087%=      5-min Rain = 0
KSM2 140713Z 12009KT M03/M05 A3028 RMK A01 T10301048  RH  087%=      5-min Rain = 0
KSM2 140714Z 12007KT M03/M05 A3028 RMK A01 T10301047  RH  088%=      5-min Rain = 0
KSM2 140715Z 12006KT M03/M05 A3028 RMK A01 T10301048  RH  088%=      5-min Rain = 0
KSM2 140716Z 12008KT M03/M05 A3028 RMK A01 T10311048  RH  088%=      5-min Rain = 0
KSM2 140717Z 12007KT M03/M05 A3028 RMK A01 T10311048  RH  088%=      5-min Rain = 0
KSM2 140718Z 12007KT M03/M05 A3028 RMK A01 T10311048  RH  088%=      5-min Rain = 0
KSM2 140719Z 12009KT M03/M05 A3028 RMK A01 T10311049  RH  088%=      5-min Rain = 0
KSM2 140720Z 12009KT M03/M05 A3028 RMK A01 T10311048  RH  088%=      5-min Rain = 0
KSM2 140721Z 12009KT M03/M05 A3028 RMK A01 T10321048  RH  088%=      5-min Rain = 0
KSM2 140722Z 12009KT M03/M05 A3028 RMK A01 T10311048  RH  088%=      5-min Rain = 0
KSM2 140723Z 12009KT M03/M05 A3028 RMK A01 T10311048  RH  088%=      5-min Rain = 0
KSM2 140724Z 12009KT M03/M05 A3028 RMK A01 T10311049  RH  088%=      5-min Rain = 0
KSM2 140725Z 12009KT M03/M05 A3028 RMK A01 T10311049  RH  088%=      5-min Rain = 0
KSM2 140726Z 12009KT M03/M05 A3028 RMK A01 T10321049  RH  088%=      5-min Rain = 0
KSM2 140727Z 12008KT M03/M05 A3028 RMK A01 T10321049  RH  088%=      5-min Rain = 0
KSM2 140728Z 12008KT M03/M05 A3028 RMK A01 T10321049  RH  088%=      5-min Rain = 0
KSM2 140729Z 12008KT M03/M05 A3028 RMK A01 T10321049  RH  088%=      5-min Rain = 0
KSM2 140730Z 13008KT M03/M05 A3028 RMK A01 T10321049  RH  088%=      5-min Rain = 0
KSM2 140731Z 13008KT M03/M05 A3028 RMK A01 T10331050  RH  088%=      5-min Rain = 0
KSM2 140732Z 13008KT M03/M05 A3028 RMK A01 T10331050  RH  088%=      5-min Rain = 0
KSM2 140733Z 12006KT M03/M05 A3028 RMK A01 T10331050  RH  088%=      5-min Rain = 0
KSM2 140734Z 12009KT M03/M05 A3028 RMK A01 T10331050  RH  088%=      5-min Rain = 0
KSM2 140735Z 12007KT M03/M05 A3028 RMK A01 T10331050  RH  089%=      5-min Rain = 0
KSM2 140736Z 13007KT M03/M05 A3028 RMK A01 T10331049  RH  089%=      5-min Rain = 0
KSM2 140737Z 12007KT M03/M05 A3028 RMK A01 T10331049  RH  089%=      5-min Rain = 0
KSM2 140738Z 12006KT M03/M05 A3028 RMK A01 T10341050  RH  089%=      5-min Rain = 0
KSM2 140739Z 12008KT M03/M05 A3028 RMK A01 T10341050  RH  089%=      5-min Rain = 0
KSM2 140740Z 12008KT M03/M05 A3028 RMK A01 T10341050  RH  089%=      5-min Rain = 0
KSM2 140741Z 13007KT M03/M05 A3028 RMK A01 T10341050  RH  089%=      5-min Rain = 0
KSM2 140742Z 12008KT M03/M05 A3028 RMK A01 T10341050  RH  089%=      5-min Rain = 0
KSM2 140743Z 12006KT M03/M05 A3028 RMK A01 T10341050  RH  089%=      5-min Rain = 0
KSM2 140744Z 13007KT M03/M05 A3028 RMK A01 T10341050  RH  089%=      5-min Rain = 0
KSM2 140745Z 12007KT M04/M05 A3028 RMK A01 T10351051  RH  089%=      5-min Rain = 0
KSM2 140746Z 12005KT M04/M05 A3028 RMK A01 T10351051  RH  089%=      5-min Rain = 0
KSM2 140747Z 11008KT M04/M05 A3028 RMK A01 T10351050  RH  089%=      5-min Rain = 0
KSM2 140748Z 12007KT M04/M05 A3028 RMK A01 T10351050  RH  089%=      5-min Rain = 0
KSM2 140749Z 11008KT M04/M05 A3028 RMK A01 T10351050  RH  089%=      5-min Rain = 0
KSM2 140750Z 11007KT M04/M05 A3029 RMK A01 T10351050  RH  089%=      5-min Rain = 0
KSM2 140751Z 12008KT M04/M05 A3029 RMK A01 T10351050  RH  089%=      5-min Rain = 0
KSM2 140752Z 12008KT M04/M05 A3029 RMK A01 T10351050  RH  089%=      5-min Rain = 0
KSM2 140753Z 12006KT M04/M05 A3029 RMK A01 T10351050  RH  089%=      5-min Rain = 0
KSM2 140754Z 12008KT M04/M05 A3029 RMK A01 T10351050  RH  089%=      5-min Rain = 0
KSM2 140755Z 12008KT M04/M05 A3029 RMK A01 T10351050  RH  089%=      5-min Rain = 0
KSM2 140756Z 12007KT M03/M05 A3029 RMK A01 T10341050  RH  089%=      5-min Rain = 0
KSM2 140757Z 12006KT M03/M05 A3029 RMK A01 T10341050  RH  089%=      5-min Rain = 0
KSM2 140758Z 12005KT M03/M05 A3029 RMK A01 T10341050  RH  089%=      5-min Rain = 0
KSM2 140759Z 11005KT M03/M05 A3029 RMK A01 T10341049  RH  089%=      5-min Rain = 0
KSM2 140800Z 12005KT M03/M05 A3029 RMK A01 T10341049  RH  089%=      5-min Rain = 0
KSM2 140801Z 11006KT M03/M05 A3029 RMK A01 T10341049  RH  089%=      5-min Rain = 0
KSM2 140802Z 12008KT M03/M05 A3029 RMK A01 T10341049  RH  089%=      5-min Rain = 0
KSM2 140803Z 11006KT M03/M05 A3029 RMK A01 T10341049  RH  089%=      5-min Rain = 0
KSM2 140804Z 12008KT M03/M05 A3029 RMK A01 T10341049  RH  089%=      5-min Rain = 0
KSM2 140805Z 12007KT M03/M05 A3029 RMK A01 T10341049  RH  089%=      5-min Rain = 0
KSM2 140806Z 12008KT M03/M05 A3029 RMK A01 T10331049  RH  089%=      5-min Rain = 0
KSM2 140807Z 12007KT M03/M05 A3029 RMK A01 T10331049  RH  089%=      5-min Rain = 0
KSM2 140808Z 12008KT M03/M05 A3028 RMK A01 T10331049  RH  089%=      5-min Rain = 0
KSM2 140809Z 12008KT M03/M05 A3028 RMK A01 T10331050  RH  089%=      5-min Rain = 0
KSM2 140810Z 12006KT M03/M05 A3028 RMK A01 T10341050  RH  089%=      5-min Rain = 0
KSM2 140811Z 12006KT M03/M05 A3028 RMK A01 T10341050  RH  089%=      5-min Rain = 0
KSM2 140812Z 12006KT M03/M05 A3028 RMK A01 T10341050  RH  089%=      5-min Rain = 0
KSM2 140813Z 12008KT M03/M05 A3028 RMK A01 T10341050  RH  089%=      5-min Rain = 0
KSM2 140814Z 12007KT M03/M05 A3028 RMK A01 T10341050  RH  089%=      5-min Rain = 0
KSM2 140815Z 12009KT M03/M05 A3028 RMK A01 T10341050  RH  089%=      5-min Rain = 0
KSM2 140816Z 12008KT M03/M05 A3028 RMK A01 T10341050  RH  089%=      5-min Rain = 0
KSM2 140817Z 12007KT M03/M05 A3028 RMK A01 T10341050  RH  089%=      5-min Rain = 0
KSM2 140818Z 13006KT M03/M05 A3029 RMK A01 T10341050  RH  089%=      5-min Rain = 0
KSM2 140819Z 13007KT M03/M05 A3029 RMK A01 T10341050  RH  089%=      5-min Rain = 0
KSM2 140820Z 12007KT M03/M05 A3029 RMK A01 T10341050  RH  089%=      5-min Rain = 0
KSM2 140821Z 13008KT M04/M05 A3029 RMK A01 T10351050  RH  089%=      5-min Rain = 0
KSM2 140822Z 13006KT M04/M05 A3028 RMK A01 T10351050  RH  089%=      5-min Rain = 0
KSM2 140823Z 13007KT M04/M05 A3029 RMK A01 T10351050  RH  089%=      5-min Rain = 0
KSM2 140824Z 13006KT M04/M05 A3029 RMK A01 T10351051  RH  089%=      5-min Rain = 0
KSM2 140825Z 13006KT M04/M05 A3028 RMK A01 T10351050  RH  089%=      5-min Rain = 0
KSM2 140826Z 13006KT M04/M05 A3029 RMK A01 T10351051  RH  089%=      5-min Rain = 0
KSM2 140827Z 13006KT M04/M05 A3029 RMK A01 T10351050  RH  089%=      5-min Rain = 0
KSM2 140828Z 13006KT M04/M05 A3029 RMK A01 T10351050  RH  089%=      5-min Rain = 0
KSM2 140829Z 12005KT M04/M05 A3029 RMK A01 T10351050  RH  089%=      5-min Rain = 0
KSM2 140830Z 12006KT M04/M05 A3029 RMK A01 T10351050  RH  090%=      5-min Rain = 0
KSM2 140831Z 13005KT M04/M05 A3029 RMK A01 T10351050  RH  090%=      5-min Rain = 0
KSM2 140832Z 13006KT M04/M05 A3029 RMK A01 T10351050  RH  090%=      5-min Rain = 0
KSM2 140833Z 13007KT M04/M05 A3029 RMK A01 T10351050  RH  090%=      5-min Rain = 0
KSM2 140834Z 13006KT M04/M05 A3029 RMK A01 T10351050  RH  089%=      5-min Rain = 0
KSM2 140835Z 13007KT M04/M05 A3029 RMK A01 T10351050  RH  089%=      5-min Rain = 0
KSM2 140836Z 13007KT M04/M05 A3028 RMK A01 T10351050  RH  089%=      5-min Rain = 0
KSM2 140837Z 13008KT M04/M05 A3028 RMK A01 T10351050  RH  089%=      5-min Rain = 0
KSM2 140838Z 12006KT M04/M05 A3028 RMK A01 T10351050  RH  089%=      5-min Rain = 0
KSM2 140839Z 13006KT M04/M05 A3028 RMK A01 T10351050  RH  089%=      5-min Rain = 0
KSM2 140840Z 12007KT M04/M05 A3028 RMK A01 T10351050  RH  089%=      5-min Rain = 0
KSM2 140841Z 12007KT M04/M05 A3028 RMK A01 T10351050  RH  089%=      5-min Rain = 0
KSM2 140842Z 13007KT M04/M05 A3028 RMK A01 T10351050  RH  089%=      5-min Rain = 0
KSM2 140843Z 13008KT M04/M05 A3028 RMK A01 T10351050  RH  089%=      5-min Rain = 0
KSM2 140844Z 13008KT M04/M05 A3028 RMK A01 T10351050  RH  089%=      5-min Rain = 0
KSM2 140845Z 13007KT M04/M05 A3028 RMK A01 T10351050  RH  089%=      5-min Rain = 0
KSM2 140846Z 12005KT M04/M05 A3028 RMK A01 T10351050  RH  089%=      5-min Rain = 0
KSM2 140847Z 13007KT M04/M05 A3028 RMK A01 T10351050  RH  089%=      5-min Rain = 0
KSM2 140848Z 12006KT M04/M05 A3028 RMK A01 T10351049  RH  089%=      5-min Rain = 0
KSM2 140849Z 12008KT M03/M05 A3028 RMK A01 T10341049  RH  089%=      5-min Rain = 0
KSM2 140850Z 13008KT M03/M05 A3028 RMK A01 T10341049  RH  089%=      5-min Rain = 0
KSM2 140851Z 13008KT M03/M05 A3029 RMK A01 T10341049  RH  089%=      5-min Rain = 0
KSM2 140852Z 12009KT M03/M05 A3029 RMK A01 T10341049  RH  089%=      5-min Rain = 0
KSM2 140853Z 13007KT M03/M05 A3029 RMK A01 T10341049  RH  089%=      5-min Rain = 0
KSM2 140854Z 13006KT M03/M05 A3029 RMK A01 T10341050  RH  089%=      5-min Rain = 0
KSM2 140855Z 13006KT M03/M05 A3029 RMK A01 T10341049  RH  089%=      5-min Rain = 0
KSM2 140856Z 13006KT M03/M05 A3029 RMK A01 T10341049  RH  090%=      5-min Rain = 0
KSM2 140857Z 13006KT M03/M05 A3029 RMK A01 T10341049  RH  090%=      5-min Rain = 0
KSM2 140858Z 14007KT M03/M05 A3029 RMK A01 T10341049  RH  090%=      5-min Rain = 0
KSM2 140859Z 14008KT M03/M05 A3028 RMK A01 T10341049  RH  090%=      5-min Rain = 0
KSM2 140900Z 13008KT M03/M05 A3028 RMK A01 T10341049  RH  090%=      5-min Rain = 0
KSM2 140901Z 13007KT M03/M05 A3028 RMK A01 T10341049  RH  090%=      5-min Rain = 0
KSM2 140902Z 14006KT M03/M05 A3028 RMK A01 T10341049  RH  090%=      5-min Rain = 0
KSM2 140903Z 13008KT M03/M05 A3028 RMK A01 T10341048  RH  090%=      5-min Rain = 0
KSM2 140904Z 13007KT M03/M05 A3028 RMK A01 T10341049  RH  090%=      5-min Rain = 0
KSM2 140905Z 13009KT M03/M05 A3028 RMK A01 T10341049  RH  090%=      5-min Rain = 0
KSM2 140906Z 13008KT M03/M05 A3028 RMK A01 T10341048  RH  090%=      5-min Rain = 0
KSM2 140907Z 13008KT M03/M05 A3028 RMK A01 T10341048  RH  090%=      5-min Rain = 0
KSM2 140908Z 13008KT M03/M05 A3028 RMK A01 T10341048  RH  090%=      5-min Rain = 0
KSM2 140909Z 13007KT M03/M05 A3028 RMK A01 T10341048  RH  090%=      5-min Rain = 0
KSM2 140910Z 13009KT M03/M05 A3028 RMK A01 T10341048  RH  090%=      5-min Rain = 0
KSM2 140911Z 13011KT M03/M05 A3028 RMK A01 T10341048  RH  090%=      5-min Rain = 0
KSM2 140912Z 13011KT M03/M05 A3028 RMK A01 T10341048  RH  090%=      5-min Rain = 0
KSM2 140913Z 13009KT M03/M05 A3028 RMK A01 T10341048  RH  090%=      5-min Rain = 0
KSM2 140914Z 12007KT M03/M05 A3028 RMK A01 T10341048  RH  090%=      5-min Rain = 0
KSM2 140915Z 14007KT M03/M05 A3028 RMK A01 T10341048  RH  090%=      5-min Rain = 0
KSM2 140916Z 13009KT M03/M05 A3028 RMK A01 T10341048  RH  091%=      5-min Rain = 0
KSM2 140917Z 13010KT M03/M05 A3028 RMK A01 T10341048  RH  090%=      5-min Rain = 0
KSM2 140918Z 13008KT M03/M05 A3028 RMK A01 T10341048  RH  090%=      5-min Rain = 0
KSM2 140919Z 13008KT M03/M05 A3028 RMK A01 T10341048  RH  090%=      5-min Rain = 0
KSM2 140920Z 13007KT M03/M05 A3028 RMK A01 T10341048  RH  091%=      5-min Rain = 0
KSM2 140921Z 13009KT M03/M05 A3028 RMK A01 T10341047  RH  091%=      5-min Rain = 0
KSM2 140922Z 13009KT M03/M05 A3028 RMK A01 T10341047  RH  091%=      5-min Rain = 0
KSM2 140923Z 13007G13KT M03/M05 A3028 RMK A01 T10341047  RH  091%=      5-min Rain = 0
KSM2 140924Z 13010KT M03/M05 A3028 RMK A01 T10341047  RH  091%=      5-min Rain = 0
KSM2 140925Z 13010KT M03/M05 A3028 RMK A01 T10341047  RH  091%=      5-min Rain = 0
KSM2 140926Z 13007KT M03/M05 A3029 RMK A01 T10341047  RH  091%=      5-min Rain = 0
KSM2 140927Z 12008KT M03/M05 A3029 RMK A01 T10341047  RH  091%=      5-min Rain = 0
KSM2 140928Z 12009KT M03/M05 A3028 RMK A01 T10341047  RH  091%=      5-min Rain = 0
KSM2 140929Z 12009KT M03/M05 A3029 RMK A01 T10341047  RH  091%=      5-min Rain = 0
KSM2 140930Z 12009KT M03/M05 A3028 RMK A01 T10341047  RH  091%=      5-min Rain = 0
KSM2 140931Z 13008KT M03/M05 A3028 RMK A01 T10341047  RH  091%=      5-min Rain = 0
KSM2 140932Z 13006KT M03/M05 A3028 RMK A01 T10341047  RH  091%=      5-min Rain = 0
KSM2 140933Z 13006KT M03/M05 A3028 RMK A01 T10341047  RH  091%=      5-min Rain = 0
KSM2 140934Z 13007KT M03/M05 A3028 RMK A01 T10341046  RH  091%=      5-min Rain = 0
KSM2 140935Z 13006KT M03/M05 A3028 RMK A01 T10341046  RH  091%=      5-min Rain = 0
KSM2 140936Z 13009KT M03/M05 A3029 RMK A01 T10341046  RH  091%=      5-min Rain = 0
KSM2 140937Z 13008KT M03/M05 A3029 RMK A01 T10341046  RH  091%=      5-min Rain = 0
KSM2 140938Z 12005KT M03/M05 A3029 RMK A01 T10341046  RH  091%=      5-min Rain = 0
KSM2 140939Z 13006KT M03/M05 A3029 RMK A01 T10341046  RH  091%=      5-min Rain = 0
KSM2 140940Z 13006KT M03/M05 A3029 RMK A01 T10341046  RH  091%=      5-min Rain = 0
KSM2 140941Z 12007KT M03/M05 A3029 RMK A01 T10341046  RH  091%=      5-min Rain = 0
KSM2 140942Z 14007KT M03/M05 A3029 RMK A01 T10341046  RH  091%=      5-min Rain = 0
KSM2 140943Z 13008KT M03/M05 A3029 RMK A01 T10341046  RH  091%=      5-min Rain = 0
KSM2 140944Z 13007KT M03/M05 A3029 RMK A01 T10341046  RH  091%=      5-min Rain = 0
KSM2 140945Z 13008KT M03/M05 A3029 RMK A01 T10341046  RH  091%=      5-min Rain = 0
KSM2 140946Z 14009KT M03/M05 A3028 RMK A01 T10341046  RH  091%=      5-min Rain = 0
KSM2 140947Z 14008KT M03/M05 A3028 RMK A01 T10341046  RH  091%=      5-min Rain = 0
KSM2 140948Z 12007KT M03/M05 A3028 RMK A01 T10341046  RH  092%=      5-min Rain = 0
KSM2 140949Z 12008KT M03/M05 A3028 RMK A01 T10341046  RH  092%=      5-min Rain = 0
KSM2 140950Z 12008KT M03/M05 A3028 RMK A01 T10341045  RH  092%=      5-min Rain = 0
KSM2 140951Z 13008KT M03/M05 A3028 RMK A01 T10341046  RH  092%=      5-min Rain = 0
KSM2 140952Z 13007KT M03/M05 A3028 RMK A01 T10341045  RH  092%=      5-min Rain = 0
KSM2 140953Z 13006KT M03/M05 A3028 RMK A01 T10331045  RH  092%=      5-min Rain = 0
KSM2 140954Z 12007KT M03/M05 A3028 RMK A01 T10331045  RH  092%=      5-min Rain = 0
KSM2 140955Z 13008KT M03/M05 A3028 RMK A01 T10331045  RH  092%=      5-min Rain = 0
KSM2 140956Z 13007KT M03/M05 A3028 RMK A01 T10331045  RH  092%=      5-min Rain = 0
KSM2 140957Z 13007KT M03/M05 A3028 RMK A01 T10331045  RH  092%=      5-min Rain = 0
KSM2 140958Z 13007KT M03/M04 A3028 RMK A01 T10331044  RH  092%=      5-min Rain = 0
KSM2 140959Z 13009KT M03/M04 A3028 RMK A01 T10331044  RH  092%=      5-min Rain = 0
KSM2 141000Z 13007KT M03/M04 A3028 RMK A01 T10331044  RH  092%=      5-min Rain = 0
KSM2 141001Z 13007KT M03/M04 A3028 RMK A01 T10331044  RH  092%=      5-min Rain = 0
KSM2 141002Z 13007KT M03/M04 A3028 RMK A01 T10331044  RH  092%=      5-min Rain = 0
KSM2 141003Z 13006KT M03/M04 A3028 RMK A01 T10331044  RH  092%=      5-min Rain = 0
KSM2 141004Z 13007KT M03/M04 A3028 RMK A01 T10321043  RH  092%=      5-min Rain = 0
KSM2 141005Z 14007KT M03/M04 A3028 RMK A01 T10321043  RH  092%=      5-min Rain = 0
KSM2 141006Z 13006KT M03/M04 A3028 RMK A01 T10321043  RH  092%=      5-min Rain = 0
KSM2 141007Z 13005KT M03/M04 A3028 RMK A01 T10321043  RH  092%=      5-min Rain = 0
KSM2 141008Z 13006KT M03/M04 A3028 RMK A01 T10321043  RH  092%=      5-min Rain = 0
KSM2 141009Z 14008KT M03/M04 A3028 RMK A01 T10321043  RH  092%=      5-min Rain = 0
KSM2 141010Z 14008KT M03/M04 A3028 RMK A01 T10311043  RH  092%=      5-min Rain = 0
KSM2 141011Z 14009KT M03/M04 A3028 RMK A01 T10321043  RH  092%=      5-min Rain = 0
KSM2 141012Z 14009KT M03/M04 A3028 RMK A01 T10321043  RH  092%=      5-min Rain = 0
KSM2 141013Z 13007KT M03/M04 A3028 RMK A01 T10311043  RH  092%=      5-min Rain = 0
KSM2 141014Z 14008KT M03/M04 A3028 RMK A01 T10321043  RH  092%=      5-min Rain = 0
KSM2 141015Z 13006KT M03/M04 A3028 RMK A01 T10321043  RH  092%=      5-min Rain = 0
KSM2 141016Z 14007KT M03/M04 A3028 RMK A01 T10321043  RH  092%=      5-min Rain = 0
KSM2 141017Z 13006KT M03/M04 A3028 RMK A01 T10321043  RH  092%=      5-min Rain = 0
KSM2 141018Z 14006G11KT M03/M04 A3028 RMK A01 T10311043  RH  092%=      5-min Rain = 0
KSM2 141019Z 14010KT M03/M04 A3028 RMK A01 T10311042  RH  092%=      5-min Rain = 0
KSM2 141020Z 14009KT M03/M04 A3028 RMK A01 T10321043  RH  092%=      5-min Rain = 0
KSM2 141021Z 14009KT M03/M04 A3028 RMK A01 T10321043  RH  092%=      5-min Rain = 0
KSM2 141022Z 14009KT M03/M04 A3028 RMK A01 T10321043  RH  092%=      5-min Rain = 0
KSM2 141023Z 14009KT M03/M04 A3028 RMK A01 T10321043  RH  092%=      5-min Rain = 0
KSM2 141024Z 14008KT M03/M04 A3028 RMK A01 T10321043  RH  092%=      5-min Rain = 0
KSM2 141025Z 14006KT M03/M04 A3028 RMK A01 T10321043  RH  092%=      5-min Rain = 0
KSM2 141026Z 12005KT M03/M04 A3028 RMK A01 T10321043  RH  092%=      5-min Rain = 0
KSM2 141027Z 12007KT M03/M04 A3028 RMK A01 T10321043  RH  092%=      5-min Rain = 0
KSM2 141028Z 13007KT M03/M04 A3028 RMK A01 T10321043  RH  092%=      5-min Rain = 0
KSM2 141029Z 14006KT M03/M04 A3028 RMK A01 T10321043  RH  092%=      5-min Rain = 0
KSM2 141030Z 13006KT M03/M04 A3028 RMK A01 T10321043  RH  092%=      5-min Rain = 0
KSM2 141031Z 12007KT M03/M04 A3028 RMK A01 T10311042  RH  092%=      5-min Rain = 0
KSM2 141032Z 13008KT M03/M04 A3028 RMK A01 T10321043  RH  092%=      5-min Rain = 0
KSM2 141033Z 13007KT M03/M04 A3028 RMK A01 T10321043  RH  092%=      5-min Rain = 0
KSM2 141034Z 13007KT M03/M04 A3028 RMK A01 T10321043  RH  092%=      5-min Rain = 0
KSM2 141035Z 13007KT M03/M04 A3028 RMK A01 T10321043  RH  092%=      5-min Rain = 0
KSM2 141036Z 13007KT M03/M04 A3028 RMK A01 T10321043  RH  092%=      5-min Rain = 0
KSM2 141037Z 13007KT M03/M04 A3028 RMK A01 T10321043  RH  092%=      5-min Rain = 0
KSM2 141038Z 12006KT M03/M04 A3028 RMK A01 T10321043  RH  092%=      5-min Rain = 0
KSM2 141039Z 13006KT M03/M04 A3028 RMK A01 T10321043  RH  092%=      5-min Rain = 0
KSM2 141040Z 14005KT M03/M04 A3028 RMK A01 T10321043  RH  092%=      5-min Rain = 0
KSM2 141041Z 12004KT M03/M04 A3028 RMK A01 T10321042  RH  092%=      5-min Rain = 0
KSM2 141042Z 13007KT M03/M04 A3028 RMK A01 T10311042  RH  092%=      5-min Rain = 0
KSM2 141043Z 13006KT M03/M04 A3028 RMK A01 T10321043  RH  092%=      5-min Rain = 0
KSM2 141044Z 13007KT M03/M04 A3028 RMK A01 T10321043  RH  092%=      5-min Rain = 0
KSM2 141045Z 13005KT M03/M04 A3028 RMK A01 T10311043  RH  092%=      5-min Rain = 0
KSM2 141046Z 12006KT M03/M04 A3028 RMK A01 T10311043  RH  092%=      5-min Rain = 0
KSM2 141047Z 12007KT M03/M04 A3028 RMK A01 T10321043  RH  092%=      5-min Rain = 0
KSM2 141048Z 12006KT M03/M04 A3028 RMK A01 T10311043  RH  092%=      5-min Rain = 0
KSM2 141049Z 12006KT M03/M04 A3028 RMK A01 T10321043  RH  092%=      5-min Rain = 0
KSM2 141050Z 12007KT M03/M04 A3028 RMK A01 T10321043  RH  092%=      5-min Rain = 0
KSM2 141051Z 12008KT M03/M04 A3028 RMK A01 T10321043  RH  092%=      5-min Rain = 0
KSM2 141052Z 12007KT M03/M04 A3028 RMK A01 T10321043  RH  092%=      5-min Rain = 0
KSM2 141053Z 12007KT M03/M04 A3028 RMK A01 T10321043  RH  092%=      5-min Rain = 0
KSM2 141054Z 13006KT M03/M04 A3028 RMK A01 T10321043  RH  092%=      5-min Rain = 0
KSM2 141055Z 12006KT M03/M04 A3028 RMK A01 T10311043  RH  092%=      5-min Rain = 0
KSM2 141056Z 11005KT M03/M04 A3028 RMK A01 T10321043  RH  092%=      5-min Rain = 0
KSM2 141057Z 13005KT M03/M04 A3028 RMK A01 T10311043  RH  092%=      5-min Rain = 0
KSM2 141058Z 13005KT M03/M04 A3028 RMK A01 T10321043  RH  092%=      5-min Rain = 0
KSM2 141059Z 13006KT M03/M04 A3028 RMK A01 T10321043  RH  092%=      5-min Rain = 0
KSM2 141100Z 12006KT M03/M04 A3028 RMK A01 T10321043  RH  092%=      5-min Rain = 0
KSM2 141101Z 12006KT M03/M04 A3028 RMK A01 T10311043  RH  092%=      5-min Rain = 0
KSM2 141102Z 12006KT M03/M04 A3028 RMK A01 T10321043  RH  092%=      5-min Rain = 0
KSM2 141103Z 13006KT M03/M04 A3028 RMK A01 T10321043  RH  092%=      5-min Rain = 0
KSM2 141104Z 13006KT M03/M04 A3028 RMK A01 T10321043  RH  092%=      5-min Rain = 0
KSM2 141105Z 13005KT M03/M04 A3028 RMK A01 T10311043  RH  092%=      5-min Rain = 0
KSM2 141106Z 13006KT M03/M04 A3028 RMK A01 T10311043  RH  092%=      5-min Rain = 0
KSM2 141107Z 13006KT M03/M04 A3028 RMK A01 T10321043  RH  092%=      5-min Rain = 0
KSM2 141108Z 14008KT M03/M04 A3028 RMK A01 T10321043  RH  092%=      5-min Rain = 0
KSM2 141109Z 13007KT M03/M04 A3028 RMK A01 T10321043  RH  092%=      5-min Rain = 0
KSM2 141110Z 12007KT M03/M04 A3028 RMK A01 T10321043  RH  092%=      5-min Rain = 0
KSM2 141111Z 13008KT M03/M04 A3028 RMK A01 T10321043  RH  092%=      5-min Rain = 0
KSM2 141112Z 13007KT M03/M04 A3028 RMK A01 T10321043  RH  092%=      5-min Rain = 0
KSM2 141113Z 14008KT M03/M04 A3028 RMK A01 T10321043  RH  092%=      5-min Rain = 0
KSM2 141114Z 13007KT M03/M04 A3028 RMK A01 T10321044  RH  092%=      5-min Rain = 0
KSM2 141115Z 12006KT M03/M04 A3028 RMK A01 T10321044  RH  092%=      5-min Rain = 0
KSM2 141116Z 12007KT M03/M04 A3028 RMK A01 T10321044  RH  092%=      5-min Rain = 0
KSM2 141117Z 13007KT M03/M04 A3028 RMK A01 T10321044  RH  092%=      5-min Rain = 0
KSM2 141118Z 12007KT M03/M04 A3028 RMK A01 T10321043  RH  092%=      5-min Rain = 0
KSM2 141119Z 13009KT M03/M04 A3028 RMK A01 T10321044  RH  092%=      5-min Rain = 0
KSM2 141120Z 13007KT M03/M04 A3028 RMK A01 T10331044  RH  092%=      5-min Rain = 0
KSM2 141121Z 13007KT M03/M04 A3028 RMK A01 T10331044  RH  092%=      5-min Rain = 0
KSM2 141122Z 13007KT M03/M04 A3028 RMK A01 T10321044  RH  092%=      5-min Rain = 0
KSM2 141123Z 13007KT M03/M04 A3028 RMK A01 T10331044  RH  092%=      5-min Rain = 0
KSM2 141124Z 12006KT M03/M04 A3028 RMK A01 T10321044  RH  092%=      5-min Rain = 0
KSM2 141125Z 13007KT M03/M04 A3028 RMK A01 T10321044  RH  092%=      5-min Rain = 0
KSM2 141126Z 13005KT M03/M04 A3028 RMK A01 T10321044  RH  092%=      5-min Rain = 0
KSM2 141127Z 12007KT M03/M04 A3028 RMK A01 T10321044  RH  092%=      5-min Rain = 0
KSM2 141128Z 13009KT M03/M04 A3028 RMK A01 T10331044  RH  092%=      5-min Rain = 0
KSM2 141129Z 13007KT M03/M04 A3028 RMK A01 T10321044  RH  092%=      5-min Rain = 0
KSM2 141130Z 13008KT M03/M04 A3028 RMK A01 T10321044  RH  092%=      5-min Rain = 0
KSM2 141131Z 13006KT M03/M04 A3028 RMK A01 T10321044  RH  092%=      5-min Rain = 0
KSM2 141132Z 13006KT M03/M04 A3028 RMK A01 T10321044  RH  092%=      5-min Rain = 0
KSM2 141133Z 14006KT M03/M04 A3028 RMK A01 T10321043  RH  092%=      5-min Rain = 0
KSM2 141134Z 14007KT M03/M04 A3028 RMK A01 T10321044  RH  092%=      5-min Rain = 0
KSM2 141135Z 14007KT M03/M04 A3028 RMK A01 T10321044  RH  092%=      5-min Rain = 0
KSM2 141136Z 13007KT M03/M04 A3028 RMK A01 T10331044  RH  092%=      5-min Rain = 0
KSM2 141137Z 13007KT M03/M04 A3028 RMK A01 T10331044  RH  092%=      5-min Rain = 0
KSM2 141138Z 12007KT M03/M04 A3028 RMK A01 T10321044  RH  092%=      5-min Rain = 0
KSM2 141139Z 12007KT M03/M04 A3028 RMK A01 T10331044  RH  092%=      5-min Rain = 0
KSM2 141140Z 12006KT M03/M04 A3028 RMK A01 T10321044  RH  092%=      5-min Rain = 0
KSM2 141141Z 13007KT M03/M04 A3028 RMK A01 T10321044  RH  092%=      5-min Rain = 0
KSM2 141142Z 12008KT M03/M04 A3028 RMK A01 T10321043  RH  092%=      5-min Rain = 0
KSM2 141143Z 13008KT M03/M04 A3028 RMK A01 T10331044  RH  092%=      5-min Rain = 0
KSM2 141144Z 13007KT M03/M04 A3028 RMK A01 T10331044  RH  092%=      5-min Rain = 0
KSM2 141145Z 12007KT M03/M04 A3028 RMK A01 T10331044  RH  092%=      5-min Rain = 0
KSM2 141146Z 12007KT M03/M04 A3028 RMK A01 T10331044  RH  092%=      5-min Rain = 0
KSM2 141147Z 12007KT M03/M05 A3028 RMK A01 T10331045  RH  092%=      5-min Rain = 0
KSM2 141148Z 13008KT M03/M05 A3028 RMK A01 T10331045  RH  092%=      5-min Rain = 0
KSM2 141149Z 12007KT M03/M05 A3028 RMK A01 T10331045  RH  092%=      5-min Rain = 0
KSM2 141150Z 13007KT M03/M05 A3028 RMK A01 T10341045  RH  092%=      5-min Rain = 0
KSM2 141151Z 14008KT M03/M05 A3028 RMK A01 T10341045  RH  092%=      5-min Rain = 0
KSM2 141152Z 13007KT M03/M05 A3028 RMK A01 T10341046  RH  092%=      5-min Rain = 0
KSM2 141153Z 13008KT M03/M05 A3028 RMK A01 T10341045  RH  092%=      5-min Rain = 0
KSM2 141154Z 14006KT M03/M05 A3028 RMK A01 T10341046  RH  092%=      5-min Rain = 0
KSM2 141155Z 14008KT M03/M05 A3028 RMK A01 T10341045  RH  092%=      5-min Rain = 0
KSM2 141156Z 13007KT M03/M05 A3028 RMK A01 T10341045  RH  092%=      5-min Rain = 0
KSM2 141157Z 13008KT M03/M05 A3028 RMK A01 T10341045  RH  092%=      5-min Rain = 0
KSM2 141158Z 13005KT M03/M05 A3028 RMK A01 T10341045  RH  092%=      5-min Rain = 0
KSM2 141159Z 12007KT M03/M05 A3028 RMK A01 T10341045  RH  092%=      5-min Rain = 0
KSM2 141200Z 13007KT M03/M05 A3028 RMK A01 T10341045  RH  092%=      5-min Rain = 0
KSM2 141201Z 13008KT M03/M05 A3028 RMK A01 T10341045  RH  092%=      5-min Rain = 0
KSM2 141202Z 13008KT M03/M05 A3028 RMK A01 T10341045  RH  092%=      5-min Rain = 0
KSM2 141203Z 13007KT M03/M05 A3028 RMK A01 T10341045  RH  092%=      5-min Rain = 0
KSM2 141204Z 13006KT M03/M05 A3028 RMK A01 T10341045  RH  092%=      5-min Rain = 0
KSM2 141205Z 14006KT M03/M04 A3028 RMK A01 T10341044  RH  093%=      5-min Rain = 0
KSM2 141206Z 13006KT M03/M04 A3028 RMK A01 T10341044  RH  093%=      5-min Rain = 0
KSM2 141207Z 13008KT M03/M04 A3028 RMK A01 T10341044  RH  093%=      5-min Rain = 0
KSM2 141208Z 13008KT M03/M04 A3028 RMK A01 T10341044  RH  093%=      5-min Rain = 0
KSM2 141209Z 12007KT M03/M04 A3028 RMK A01 T10341044  RH  093%=      5-min Rain = 0
KSM2 141210Z 13007KT M03/M04 A3028 RMK A01 T10341044  RH  093%=      5-min Rain = 0
KSM2 141211Z 13007KT M04/M04 A3028 RMK A01 T10351044  RH  093%=      5-min Rain = 0
KSM2 141212Z 13006KT M04/M04 A3028 RMK A01 T10351044  RH  093%=      5-min Rain = 0
KSM2 141213Z 14009KT M04/M04 A3028 RMK A01 T10351044  RH  094%=      5-min Rain = 0
KSM2 141214Z 13007KT M04/M04 A3028 RMK A01 T10351044  RH  094%=      5-min Rain = 0
KSM2 141215Z 13008KT M04/M04 A3028 RMK A01 T10351043  RH  094%=      5-min Rain = 0
KSM2 141216Z 13007KT M04/M04 A3028 RMK A01 T10351043  RH  094%=      5-min Rain = 0
KSM2 141217Z 14007KT M04/M04 A3028 RMK A01 T10351043  RH  094%=      5-min Rain = 0
KSM2 141218Z 12007KT M04/M04 A3028 RMK A01 T10351043  RH  094%=      5-min Rain = 0
KSM2 141219Z 14006KT M04/M04 A3028 RMK A01 T10351043  RH  094%=      5-min Rain = 0
KSM2 141220Z 12006KT M04/M04 A3028 RMK A01 T10351042  RH  094%=      5-min Rain = 0
KSM2 141221Z 13007KT M04/M04 A3028 RMK A01 T10351042  RH  094%=      5-min Rain = 0
KSM2 141222Z 13008KT M04/M04 A3028 RMK A01 T10361044  RH  094%=      5-min Rain = 0
KSM2 141223Z 13007KT M04/M04 A3028 RMK A01 T10361044  RH  094%=      5-min Rain = 0
KSM2 141224Z 13007KT M04/M04 A3028 RMK A01 T10361044  RH  094%=      5-min Rain = 0
KSM2 141225Z 13007KT M04/M04 A3028 RMK A01 T10361044  RH  094%=      5-min Rain = 0
KSM2 141226Z 13007KT M04/M04 A3028 RMK A01 T10361044  RH  094%=      5-min Rain = 0
KSM2 141227Z 12007KT M04/M04 A3028 RMK A01 T10361044  RH  094%=      5-min Rain = 0
KSM2 141228Z 13008KT M04/M04 A3028 RMK A01 T10361044  RH  094%=      5-min Rain = 0
KSM2 141229Z 12007KT M04/M04 A3028 RMK A01 T10371044  RH  094%=      5-min Rain = 0
KSM2 141230Z 12007KT M04/M04 A3028 RMK A01 T10371044  RH  094%=      5-min Rain = 0
KSM2 141231Z 13006KT M04/M04 A3028 RMK A01 T10371044  RH  094%=      5-min Rain = 0
KSM2 141232Z 12007KT M04/M04 A3028 RMK A01 T10371044  RH  095%=      5-min Rain = 0
KSM2 141233Z 13007KT M04/M04 A3028 RMK A01 T10371044  RH  095%=      5-min Rain = 0
KSM2 141234Z 12006KT M04/M04 A3028 RMK A01 T10371044  RH  095%=      5-min Rain = 0
KSM2 141235Z 14007KT M04/M04 A3028 RMK A01 T10371044  RH  095%=      5-min Rain = 0
KSM2 141236Z 14007KT M04/M04 A3028 RMK A01 T10371044  RH  095%=      5-min Rain = 0
KSM2 141237Z 14006KT M04/M04 A3028 RMK A01 T10371044  RH  095%=      5-min Rain = 0
KSM2 141238Z 14006KT M04/M04 A3029 RMK A01 T10361044  RH  095%=      5-min Rain = 0
KSM2 141239Z 14006KT M04/M04 A3029 RMK A01 T10361044  RH  095%=      5-min Rain = 0
KSM2 141240Z 14007KT M04/M04 A3029 RMK A01 T10371044  RH  095%=      5-min Rain = 0
KSM2 141241Z 13006KT M04/M04 A3029 RMK A01 T10371044  RH  095%=      5-min Rain = 0
KSM2 141242Z 14009KT M04/M04 A3029 RMK A01 T10361043  RH  095%=      5-min Rain = 0
KSM2 141243Z 14009KT M04/M04 A3029 RMK A01 T10361043  RH  095%=      5-min Rain = 0
KSM2 141244Z 14009KT M04/M04 A3029 RMK A01 T10361043  RH  095%=      5-min Rain = 0
KSM2 141245Z 15009KT M04/M04 A3029 RMK A01 T10361043  RH  095%=      5-min Rain = 0
KSM2 141246Z 14008KT M04/M04 A3029 RMK A01 T10361043  RH  095%=      5-min Rain = 0
KSM2 141247Z 14008KT M04/M04 A3029 RMK A01 T10361043  RH  095%=      5-min Rain = 0
KSM2 141248Z 14008KT M04/M04 A3029 RMK A01 T10361043  RH  095%=      5-min Rain = 0
KSM2 141249Z 14008KT M04/M04 A3029 RMK A01 T10361043  RH  095%=      5-min Rain = 0
KSM2 141250Z 14007KT M04/M04 A3029 RMK A01 T10361043  RH  095%=      5-min Rain = 0
KSM2 141251Z 14007KT M04/M04 A3029 RMK A01 T10361042  RH  095%=      5-min Rain = 0
KSM2 141252Z 14008KT M04/M04 A3029 RMK A01 T10351042  RH  095%=      5-min Rain = 0
KSM2 141253Z 14008KT M04/M04 A3029 RMK A01 T10351042  RH  095%=      5-min Rain = 0
KSM2 141254Z 14006KT M04/M04 A3029 RMK A01 T10351042  RH  095%=      5-min Rain = 0
KSM2 141255Z 15006KT M04/M04 A3029 RMK A01 T10351042  RH  095%=      5-min Rain = 0
KSM2 141256Z 14007KT M04/M04 A3029 RMK A01 T10351041  RH  095%=      5-min Rain = 0
KSM2 141257Z 13008KT M04/M04 A3029 RMK A01 T10351041  RH  095%=      5-min Rain = 0
KSM2 141258Z 14007KT M04/M04 A3029 RMK A01 T10351041  RH  095%=      5-min Rain = 0
KSM2 141259Z 14009KT M04/M04 A3029 RMK A01 T10351041  RH  095%=      5-min Rain = 0
KSM2 141300Z 14008KT M04/M04 A3029 RMK A01 T10351041  RH  095%=      5-min Rain = 0
KSM2 141301Z 14006KT M04/M04 A3029 RMK A01 T10351042  RH  095%=      5-min Rain = 0
KSM2 141302Z 15008KT M04/M04 A3029 RMK A01 T10351042  RH  095%=      5-min Rain = 0
KSM2 141303Z 14007KT M04/M04 A3029 RMK A01 T10351041  RH  095%=      5-min Rain = 0
KSM2 141304Z 13007KT M04/M04 A3029 RMK A01 T10351041  RH  095%=      5-min Rain = 0
KSM2 141305Z 14008KT M04/M04 A3029 RMK A01 T10351041  RH  095%=      5-min Rain = 0
KSM2 141306Z 13007KT M04/M04 A3029 RMK A01 T10351042  RH  095%=      5-min Rain = 0
KSM2 141307Z 13006KT M04/M04 A3029 RMK A01 T10351042  RH  095%=      5-min Rain = 0
KSM2 141308Z 14006KT M04/M04 A3029 RMK A01 T10351042  RH  095%=      5-min Rain = 0
KSM2 141309Z 14008KT M04/M04 A3029 RMK A01 T10351042  RH  095%=      5-min Rain = 0
KSM2 141310Z 13006KT M04/M04 A3029 RMK A01 T10351042  RH  095%=      5-min Rain = 0
KSM2 141311Z 13006KT M04/M04 A3029 RMK A01 T10351042  RH  095%=      5-min Rain = 0
KSM2 141312Z 13008KT M04/M04 A3029 RMK A01 T10351043  RH  095%=      5-min Rain = 0
KSM2 141313Z 13005KT M04/M04 A3029 RMK A01 T10351042  RH  095%=      5-min Rain = 0
KSM2 141314Z 13006KT M04/M04 A3029 RMK A01 T10351043  RH  095%=      5-min Rain = 0
KSM2 141315Z 13006KT M04/M04 A3029 RMK A01 T10351043  RH  095%=      5-min Rain = 0
KSM2 141316Z 13006KT M04/M04 A3029 RMK A01 T10361043  RH  095%=      5-min Rain = 0
KSM2 141317Z 14009KT M04/M04 A3029 RMK A01 T10361043  RH  095%=      5-min Rain = 0
KSM2 141318Z 13007KT M04/M04 A3029 RMK A01 T10361044  RH  095%=      5-min Rain = 0
KSM2 141319Z 13007KT M04/M04 A3029 RMK A01 T10361044  RH  095%=      5-min Rain = 0
KSM2 141320Z 13008KT M04/M04 A3029 RMK A01 T10361044  RH  095%=      5-min Rain = 0
KSM2 141321Z 13007KT M04/M04 A3029 RMK A01 T10361044  RH  095%=      5-min Rain = 0
KSM2 141322Z 14007KT M04/M04 A3029 RMK A01 T10361044  RH  095%=      5-min Rain = 0
KSM2 141323Z 13006KT M04/M04 A303 RMK A01 T10361044  RH  095%=      5-min Rain = 0
KSM2 141324Z 14008KT M04/M04 A303 RMK A01 T10361044  RH  095%=      5-min Rain = 0
KSM2 141325Z 14007KT M04/M04 A303 RMK A01 T10361043  RH  095%=      5-min Rain = 0
KSM2 141326Z 14007KT M04/M04 A303 RMK A01 T10361043  RH  095%=      5-min Rain = 0
KSM2 141327Z 14005KT M04/M04 A303 RMK A01 T10361044  RH  095%=      5-min Rain = 0
KSM2 141328Z 14006KT M04/M04 A303 RMK A01 T10361043  RH  095%=      5-min Rain = 0
KSM2 141329Z 14005KT M04/M04 A303 RMK A01 T10361043  RH  095%=      5-min Rain = 0
KSM2 141330Z 13007KT M04/M04 A303 RMK A01 T10361043  RH  095%=      5-min Rain = 0
KSM2 141331Z 14006KT M04/M04 A303 RMK A01 T10361043  RH  095%=      5-min Rain = 0
KSM2 141332Z 13006KT M04/M04 A303 RMK A01 T10351043  RH  095%=      5-min Rain = 0
KSM2 141333Z 13007KT M04/M04 A303 RMK A01 T10361043  RH  095%=      5-min Rain = 0
KSM2 141334Z 13006KT M04/M04 A303 RMK A01 T10361043  RH  095%=      5-min Rain = 0
KSM2 141335Z 13007KT M04/M04 A303 RMK A01 T10361043  RH  095%=      5-min Rain = 0
KSM2 141336Z 14008KT M04/M04 A303 RMK A01 T10351043  RH  095%=      5-min Rain = 0
KSM2 141337Z 14007KT M04/M04 A303 RMK A01 T10361043  RH  095%=      5-min Rain = 0
KSM2 141338Z 14006KT M04/M04 A303 RMK A01 T10361043  RH  095%=      5-min Rain = 0
KSM2 141339Z 13008KT M04/M04 A303 RMK A01 T10351043  RH  095%=      5-min Rain = 0
KSM2 141340Z 14007KT M04/M04 A303 RMK A01 T10351043  RH  095%=      5-min Rain = 0
KSM2 141341Z 14006KT M04/M04 A303 RMK A01 T10351043  RH  095%=      5-min Rain = 0
KSM2 141342Z 13007KT M04/M04 A303 RMK A01 T10351043  RH  095%=      5-min Rain = 0
KSM2 141343Z 14008KT M04/M04 A303 RMK A01 T10351043  RH  095%=      5-min Rain = 0
KSM2 141344Z 14008KT M04/M04 A303 RMK A01 T10351043  RH  095%=      5-min Rain = 0
KSM2 141345Z 14008KT M04/M04 A303 RMK A01 T10351042  RH  095%=      5-min Rain = 0
KSM2 141346Z 14007KT M04/M04 A303 RMK A01 T10351043  RH  095%=      5-min Rain = 0
KSM2 141347Z 15007KT M04/M04 A303 RMK A01 T10351042  RH  095%=      5-min Rain = 0
KSM2 141348Z 15007KT M04/M04 A303 RMK A01 T10351042  RH  095%=      5-min Rain = 0
KSM2 141349Z 14007KT M04/M04 A303 RMK A01 T10351042  RH  095%=      5-min Rain = 0
KSM2 141350Z 14008KT M04/M04 A303 RMK A01 T10351042  RH  095%=      5-min Rain = 0
KSM2 141351Z 14007KT M04/M04 A303 RMK A01 T10361043  RH  095%=      5-min Rain = 0
KSM2 141352Z 13007KT M04/M04 A303 RMK A01 T10351042  RH  095%=      5-min Rain = 0
KSM2 141353Z 15007KT M04/M04 A303 RMK A01 T10361043  RH  095%=      5-min Rain = 0
KSM2 141354Z 15006KT M04/M04 A303 RMK A01 T10361043  RH  095%=      5-min Rain = 0
KSM2 141355Z 14006KT M04/M04 A303 RMK A01 T10351042  RH  095%=      5-min Rain = 0
KSM2 141356Z 14007KT M04/M04 A303 RMK A01 T10351042  RH  095%=      5-min Rain = 0
KSM2 141357Z 14007KT M04/M04 A303 RMK A01 T10351042  RH  095%=      5-min Rain = 0
KSM2 141358Z 14006KT M04/M04 A303 RMK A01 T10351042  RH  095%=      5-min Rain = 0
KSM2 141359Z 13006KT M04/M04 A303 RMK A01 T10351042  RH  095%=      5-min Rain = 0
KSM2 141400Z 14007KT M04/M04 A303 RMK A01 T10351042  RH  095%=      5-min Rain = 0
KSM2 141401Z 14008KT M04/M04 A303 RMK A01 T10351042  RH  095%=      5-min Rain = 0
KSM2 141402Z 14009KT M04/M04 A303 RMK A01 T10351042  RH  095%=      5-min Rain = 0
KSM2 141403Z 14008KT M04/M04 A303 RMK A01 T10361042  RH  095%=      5-min Rain = 0
KSM2 141404Z 14008KT M04/M04 A303 RMK A01 T10361043  RH  095%=      5-min Rain = 0
KSM2 141405Z 14009KT M04/M04 A303 RMK A01 T10361043  RH  095%=      5-min Rain = 0
KSM2 141406Z 14009KT M04/M04 A303 RMK A01 T10361043  RH  095%=      5-min Rain = 0
KSM2 141407Z 14009KT M04/M04 A303 RMK A01 T10371043  RH  095%=      5-min Rain = 0
KSM2 141408Z 14008KT M04/M04 A303 RMK A01 T10371043  RH  095%=      5-min Rain = 0
KSM2 141409Z 14007KT M04/M04 A303 RMK A01 T10361043  RH  095%=      5-min Rain = 0
KSM2 141410Z 14007KT M04/M04 A303 RMK A01 T10361043  RH  095%=      5-min Rain = 0
KSM2 141411Z 14007KT M04/M04 A303 RMK A01 T10361042  RH  096%=      5-min Rain = 0
KSM2 141412Z 14007KT M04/M04 A303 RMK A01 T10361042  RH  096%=      5-min Rain = 0
KSM2 141413Z 13007KT M04/M04 A303 RMK A01 T10361042  RH  096%=      5-min Rain = 0
KSM2 141414Z 14007KT M04/M04 A303 RMK A01 T10351041  RH  096%=      5-min Rain = 0
KSM2 141415Z 14006KT M04/M04 A303 RMK A01 T10351041  RH  096%=      5-min Rain = 0
KSM2 141416Z 14007KT M04/M04 A303 RMK A01 T10351041  RH  096%=      5-min Rain = 0
KSM2 141417Z 14008KT M04/M04 A303 RMK A01 T10351041  RH  096%=      5-min Rain = 0
KSM2 141418Z 15009KT M04/M04 A303 RMK A01 T10351041  RH  096%=      5-min Rain = 0
KSM2 141419Z 14009KT M04/M04 A303 RMK A01 T10361041  RH  096%=      5-min Rain = 0
KSM2 141420Z 15006KT M04/M04 A303 RMK A01 T10361042  RH  096%=      5-min Rain = 0
KSM2 141421Z 14006KT M04/M04 A303 RMK A01 T10361041  RH  096%=      5-min Rain = 0
KSM2 141422Z 14007KT M04/M04 A303 RMK A01 T10361041  RH  096%=      5-min Rain = 0
KSM2 141423Z 14009KT M04/M04 A303 RMK A01 T10351041  RH  096%=      5-min Rain = 0
KSM2 141424Z 15008KT M04/M04 A303 RMK A01 T10361041  RH  096%=      5-min Rain = 0
KSM2 141425Z 14006KT M04/M04 A303 RMK A01 T10361041  RH  096%=      5-min Rain = 0
KSM2 141426Z 13007KT M04/M04 A303 RMK A01 T10361041  RH  096%=      5-min Rain = 0
KSM2 141427Z 13007KT M04/M04 A303 RMK A01 T10361041  RH  096%=      5-min Rain = 0
KSM2 141428Z 14008KT M04/M04 A303 RMK A01 T10361041  RH  096%=      5-min Rain = 0
KSM2 141429Z 14009KT M04/M04 A303 RMK A01 T10361041  RH  096%=      5-min Rain = 0
KSM2 141430Z 14006KT M04/M04 A303 RMK A01 T10361041  RH  096%=      5-min Rain = 0
KSM2 141431Z 14006KT M04/M04 A303 RMK A01 T10351040  RH  096%=      5-min Rain = 0
KSM2 141432Z 13007KT M04/M04 A303 RMK A01 T10351040  RH  096%=      5-min Rain = 0
KSM2 141433Z 14007KT M04/M04 A303 RMK A01 T10351040  RH  096%=      5-min Rain = 0
KSM2 141434Z 14008KT M04/M04 A303 RMK A01 T10351040  RH  096%=      5-min Rain = 0
KSM2 141435Z 14007KT M03/M04 A303 RMK A01 T10341039  RH  096%=      5-min Rain = 0
KSM2 141436Z 14008KT M04/M04 A303 RMK A01 T10351040  RH  096%=      5-min Rain = 0
KSM2 141437Z 15006KT M04/M04 A303 RMK A01 T10351040  RH  096%=      5-min Rain = 0
KSM2 141438Z 14007KT M04/M04 A303 RMK A01 T10351040  RH  096%=      5-min Rain = 0
KSM2 141439Z 15006KT M03/M04 A303 RMK A01 T10341039  RH  096%=      5-min Rain = 0
KSM2 141440Z 15007KT M03/M04 A303 RMK A01 T10341039  RH  097%=      5-min Rain = 0
KSM2 141441Z 15007KT M03/M04 A303 RMK A01 T10341039  RH  096%=      5-min Rain = 0
KSM2 141442Z 15007KT M03/M04 A303 RMK A01 T10341039  RH  096%=      5-min Rain = 0
KSM2 141443Z 15006KT M03/M04 A303 RMK A01 T10341039  RH  096%=      5-min Rain = 0
KSM2 141444Z 15006KT M03/M04 A303 RMK A01 T10341039  RH  096%=      5-min Rain = 0
KSM2 141445Z 15007KT M03/M04 A303 RMK A01 T10341039  RH  096%=      5-min Rain = 0
KSM2 141446Z 14007KT M03/M04 A303 RMK A01 T10341038  RH  096%=      5-min Rain = 0
KSM2 141447Z 14005KT M03/M04 A303 RMK A01 T10331038  RH  096%=      5-min Rain = 0
KSM2 141448Z 15007KT M03/M04 A303 RMK A01 T10331038  RH  096%=      5-min Rain = 0
KSM2 141449Z 14008KT M03/M04 A303 RMK A01 T10331038  RH  096%=      5-min Rain = 0
KSM2 141450Z 15006KT M03/M04 A303 RMK A01 T10331038  RH  096%=      5-min Rain = 0
KSM2 141451Z 14006KT M03/M04 A303 RMK A01 T10331038  RH  096%=      5-min Rain = 0
KSM2 141452Z 13006KT M03/M04 A303 RMK A01 T10331038  RH  096%=      5-min Rain = 0
KSM2 141453Z 14006KT M03/M04 A303 RMK A01 T10331038  RH  096%=      5-min Rain = 0
KSM2 141454Z 16006KT M03/M04 A303 RMK A01 T10331038  RH  096%=      5-min Rain = 0
KSM2 141455Z 15006KT M03/M04 A303 RMK A01 T10321037  RH  097%=      5-min Rain = 0
KSM2 141456Z 13006KT M03/M04 A303 RMK A01 T10321037  RH  097%=      5-min Rain = 0
KSM2 141457Z 14009KT M03/M04 A303 RMK A01 T10321037  RH  096%=      5-min Rain = 0
KSM2 141458Z 13007KT M03/M04 A303 RMK A01 T10331038  RH  096%=      5-min Rain = 0
KSM2 141459Z 13006KT M03/M04 A303 RMK A01 T10331039  RH  096%=      5-min Rain = 0
KSM2 141500Z 14008KT M03/M04 A303 RMK A01 T10331038  RH  096%=      5-min Rain = 0
KSM2 141501Z 14009KT M03/M04 A303 RMK A01 T10331038  RH  096%=      5-min Rain = 0
KSM2 141502Z 14009KT M03/M04 A303 RMK A01 T10341039  RH  096%=      5-min Rain = 0
KSM2 141503Z 14007KT M03/M04 A303 RMK A01 T10341039  RH  096%=      5-min Rain = 0
KSM2 141504Z 14007KT M03/M04 A303 RMK A01 T10341039  RH  096%=      5-min Rain = 0
KSM2 141505Z 14007KT M03/M04 A303 RMK A01 T10341039  RH  096%=      5-min Rain = 0
KSM2 141506Z 14008KT M03/M04 A303 RMK A01 T10341039  RH  096%=      5-min Rain = 0
KSM2 141507Z 14006KT M03/M04 A303 RMK A01 T10341039  RH  096%=      5-min Rain = 0
KSM2 141508Z 15006KT M03/M04 A303 RMK A01 T10331038  RH  096%=      5-min Rain = 0
KSM2 141509Z 15005KT M03/M04 A303 RMK A01 T10331038  RH  096%=      5-min Rain = 0
KSM2 141510Z 13006KT M03/M04 A303 RMK A01 T10321037  RH  096%=      5-min Rain = 0
KSM2 141511Z 14007KT M03/M04 A303 RMK A01 T10321037  RH  096%=      5-min Rain = 0
KSM2 141512Z 15007KT M03/M04 A303 RMK A01 T10321037  RH  096%=      5-min Rain = 0
KSM2 141513Z 15006KT M03/M04 A303 RMK A01 T10321037  RH  096%=      5-min Rain = 0
KSM2 141514Z 14007KT M03/M04 A303 RMK A01 T10321037  RH  096%=      5-min Rain = 0
KSM2 141515Z 14007KT M03/M04 A303 RMK A01 T10321037  RH  096%=      5-min Rain = 0
KSM2 141516Z 15007KT M03/M04 A303 RMK A01 T10321037  RH  096%=      5-min Rain = 0
KSM2 141517Z 15008KT M03/M04 A303 RMK A01 T10321037  RH  096%=      5-min Rain = 0
KSM2 141518Z 15007KT M03/M04 A303 RMK A01 T10311036  RH  096%=      5-min Rain = 0
KSM2 141519Z 15007KT M03/M04 A303 RMK A01 T10311036  RH  096%=      5-min Rain = 0
KSM2 141520Z 15009KT M03/M04 A303 RMK A01 T10301035  RH  096%=      5-min Rain = 0
KSM2 141521Z 14008KT M03/M04 A303 RMK A01 T10311036  RH  096%=      5-min Rain = 0
KSM2 141522Z 15006KT M03/M04 A303 RMK A01 T10311036  RH  096%=      5-min Rain = 0
KSM2 141523Z 15008KT M03/M04 A303 RMK A01 T10311036  RH  096%=      5-min Rain = 0
KSM2 141524Z 15008KT M03/M04 A303 RMK A01 T10311036  RH  096%=      5-min Rain = 0
KSM2 141525Z 14006KT M03/M04 A303 RMK A01 T10311036  RH  096%=      5-min Rain = 0
KSM2 141526Z 13007KT M03/M04 A303 RMK A01 T10311036  RH  096%=      5-min Rain = 0
KSM2 141527Z 14007KT M03/M04 A3031 RMK A01 T10311036  RH  096%=      5-min Rain = 0
KSM2 141528Z 14007KT M03/M04 A3031 RMK A01 T10311036  RH  096%=      5-min Rain = 0
KSM2 141529Z 14006KT M03/M04 A303 RMK A01 T10311036  RH  096%=      5-min Rain = 0
KSM2 141530Z 14006KT M03/M04 A303 RMK A01 T10301035  RH  096%=      5-min Rain = 0
KSM2 141531Z 13005KT M03/M04 A303 RMK A01 T10301035  RH  096%=      5-min Rain = 0
KSM2 141532Z 14005KT M03/M03 A303 RMK A01 T10291034  RH  096%=      5-min Rain = 0
KSM2 141533Z 14007KT M03/M03 A303 RMK A01 T10281033  RH  097%=      5-min Rain = 0
KSM2 141534Z 13007KT M03/M03 A303 RMK A01 T10281033  RH  096%=      5-min Rain = 0
KSM2 141535Z 14007KT M03/M03 A303 RMK A01 T10291034  RH  096%=      5-min Rain = 0
KSM2 141536Z 15007KT M03/M03 A303 RMK A01 T10291034  RH  096%=      5-min Rain = 0
KSM2 141537Z 15008KT M03/M03 A303 RMK A01 T10291034  RH  096%=      5-min Rain = 0
KSM2 141538Z 14007KT M03/M03 A303 RMK A01 T10291034  RH  096%=      5-min Rain = 0
KSM2 141539Z 15008KT M03/M03 A303 RMK A01 T10291034  RH  096%=      5-min Rain = 0
KSM2 141540Z 14006KT M03/M03 A303 RMK A01 T10291034  RH  096%=      5-min Rain = 0
KSM2 141541Z 14008KT M03/M03 A303 RMK A01 T10291034  RH  096%=      5-min Rain = 0
KSM2 141542Z 14007KT M03/M03 A303 RMK A01 T10281033  RH  096%=      5-min Rain = 0
KSM2 141543Z 15006KT M03/M03 A303 RMK A01 T10281033  RH  096%=      5-min Rain = 0
KSM2 141544Z 14007KT M03/M03 A303 RMK A01 T10271032  RH  096%=      5-min Rain = 0
KSM2 141545Z 15008KT M03/M03 A303 RMK A01 T10281032  RH  096%=      5-min Rain = 0
KSM2 141546Z 14007KT M03/M03 A303 RMK A01 T10271032  RH  096%=      5-min Rain = 0
KSM2 141547Z 14006KT M03/M03 A303 RMK A01 T10271033  RH  096%=      5-min Rain = 0
KSM2 141548Z 14007KT M03/M03 A303 RMK A01 T10271032  RH  096%=      5-min Rain = 0
KSM2 141549Z 15006KT M03/M03 A303 RMK A01 T10271032  RH  096%=      5-min Rain = 0
KSM2 141550Z 15006KT M03/M03 A303 RMK A01 T10271032  RH  096%=      5-min Rain = 0
KSM2 141551Z 13005KT M03/M03 A3031 RMK A01 T10271033  RH  096%=      5-min Rain = 0
KSM2 141552Z 14005KT M03/M03 A3031 RMK A01 T10271032  RH  096%=      5-min Rain = 0
KSM2 141553Z 14006KT M03/M03 A3031 RMK A01 T10271032  RH  096%=      5-min Rain = 0
KSM2 141554Z 13006KT M03/M03 A303 RMK A01 T10271032  RH  096%=      5-min Rain = 0
KSM2 141555Z 14007KT M03/M03 A303 RMK A01 T10271032  RH  096%=      5-min Rain = 0
KSM2 141556Z 15005KT M03/M03 A303 RMK A01 T10271033  RH  096%=      5-min Rain = 0
KSM2 141557Z 14007KT M03/M03 A303 RMK A01 T10261031  RH  096%=      5-min Rain = 0
KSM2 141558Z 15007KT M03/M03 A303 RMK A01 T10261031  RH  096%=      5-min Rain = 0
KSM2 141559Z 15007KT M03/M03 A303 RMK A01 T10261031  RH  096%=      5-min Rain = 0
KSM2 141600Z 16006KT M03/M03 A303 RMK A01 T10261031  RH  096%=      5-min Rain = 0
KSM2 141601Z 16008KT M03/M03 A303 RMK A01 T10261031  RH  096%=      5-min Rain = 0
KSM2 141602Z 15008KT M03/M03 A303 RMK A01 T10261031  RH  096%=      5-min Rain = 0
KSM2 141603Z 14007KT M03/M03 A303 RMK A01 T10261032  RH  096%=      5-min Rain = 0
KSM2 141604Z 14006KT M03/M03 A303 RMK A01 T10271032  RH  096%=      5-min Rain = 0
KSM2 141605Z 14005KT M03/M03 A303 RMK A01 T10271032  RH  096%=      5-min Rain = 0
KSM2 141606Z 14007KT M03/M03 A303 RMK A01 T10261031  RH  096%=      5-min Rain = 0
KSM2 141607Z 15008KT M03/M03 A303 RMK A01 T10261031  RH  096%=      5-min Rain = 0
KSM2 141608Z 15008KT M03/M03 A303 RMK A01 T10261031  RH  096%=      5-min Rain = 0
KSM2 141609Z 14006KT M03/M03 A303 RMK A01 T10261031  RH  096%=      5-min Rain = 0
KSM2 141610Z 14008KT M03/M03 A303 RMK A01 T10251030  RH  096%=      5-min Rain = 0
KSM2 141611Z 13005KT M03/M03 A303 RMK A01 T10251031  RH  096%=      5-min Rain = 0
KSM2 141612Z 14004KT M03/M03 A303 RMK A01 T10261031  RH  096%=      5-min Rain = 0
KSM2 141613Z 13006KT M03/M03 A303 RMK A01 T10251030  RH  096%=      5-min Rain = 0
KSM2 141614Z 14007KT M02/M03 A303 RMK A01 T10241029  RH  096%=      5-min Rain = 0
KSM2 141615Z 13008KT M02/M03 A303 RMK A01 T10241029  RH  096%=      5-min Rain = 0
KSM2 141616Z 14007KT M02/M03 A303 RMK A01 T10241029  RH  096%=      5-min Rain = 0
KSM2 141617Z 14009KT M02/M03 A303 RMK A01 T10241029  RH  096%=      5-min Rain = 0
KSM2 141618Z 14007KT M03/M03 A303 RMK A01 T10251030  RH  096%=      5-min Rain = 0
KSM2 141619Z 15007KT M03/M03 A303 RMK A01 T10251030  RH  096%=      5-min Rain = 0
KSM2 141620Z 14007KT M02/M03 A303 RMK A01 T10241029  RH  096%=      5-min Rain = 0
KSM2 141621Z 14007KT M02/M03 A303 RMK A01 T10241029  RH  096%=      5-min Rain = 0
KSM2 141622Z 14008KT M02/M03 A303 RMK A01 T10231028  RH  097%=      5-min Rain = 0
KSM2 141623Z 16008KT M02/M03 A303 RMK A01 T10231027  RH  097%=      5-min Rain = 0
KSM2 141624Z 16008KT M02/M03 A303 RMK A01 T10231027  RH  097%=      5-min Rain = 0
KSM2 141625Z 16008KT M02/M03 A303 RMK A01 T10221027  RH  097%=      5-min Rain = 0
KSM2 141626Z 15009KT M02/M03 A303 RMK A01 T10221026  RH  097%=      5-min Rain = 0
KSM2 141627Z 15008KT M02/M03 A303 RMK A01 T10211026  RH  097%=      5-min Rain = 0
KSM2 141628Z 16008KT M02/M03 A303 RMK A01 T10211026  RH  097%=      5-min Rain = 0
KSM2 141629Z 16007KT M02/M03 A303 RMK A01 T10211026  RH  097%=      5-min Rain = 0
KSM2 141630Z 15006KT M02/M02 A303 RMK A01 T10201024  RH  097%=      5-min Rain = 0
KSM2 141631Z 17007KT M02/M02 A303 RMK A01 T10181023  RH  097%=      5-min Rain = 0
KSM2 141632Z 16007KT M02/M02 A303 RMK A01 T10181023  RH  097%=      5-min Rain = 0
KSM2 141633Z 15008KT M02/M02 A303 RMK A01 T10191023  RH  097%=      5-min Rain = 0
KSM2 141634Z 14007KT M02/M02 A303 RMK A01 T10191024  RH  097%=      5-min Rain = 0
KSM2 141635Z 15008KT M02/M02 A303 RMK A01 T10191024  RH  097%=      5-min Rain = 0
KSM2 141636Z 16008KT M02/M02 A303 RMK A01 T10191024  RH  097%=      5-min Rain = 0
KSM2 141637Z 16008KT M02/M02 A303 RMK A01 T10191024  RH  097%=      5-min Rain = 0
KSM2 141638Z 16007KT M02/M02 A303 RMK A01 T10191024  RH  097%=      5-min Rain = 0
KSM2 141639Z 15008KT M02/M02 A303 RMK A01 T10191023  RH  097%=      5-min Rain = 0
KSM2 141640Z 16009KT M02/M02 A303 RMK A01 T10181023  RH  097%=      5-min Rain = 0
KSM2 141641Z 15009KT M02/M02 A303 RMK A01 T10181023  RH  097%=      5-min Rain = 0
KSM2 141642Z 16010KT M02/M02 A303 RMK A01 T10181023  RH  097%=      5-min Rain = 0
KSM2 141643Z 16008KT M02/M02 A303 RMK A01 T10181023  RH  097%=      5-min Rain = 0
KSM2 141644Z 15007KT M02/M02 A303 RMK A01 T10181022  RH  097%=      5-min Rain = 0
KSM2 141645Z 15009KT M02/M02 A303 RMK A01 T10161021  RH  097%=      5-min Rain = 0
KSM2 141646Z 16008KT M02/M02 A303 RMK A01 T10171022  RH  097%=      5-min Rain = 0
KSM2 141647Z 16008KT M02/M02 A303 RMK A01 T10181023  RH  097%=      5-min Rain = 0
KSM2 141648Z 17008KT M02/M02 A303 RMK A01 T10181023  RH  097%=      5-min Rain = 0
KSM2 141649Z 15006KT M02/M02 A303 RMK A01 T10181023  RH  097%=      5-min Rain = 0
KSM2 141650Z 15007KT M02/M02 A303 RMK A01 T10171022  RH  097%=      5-min Rain = 0
KSM2 141651Z 16008KT M02/M02 A303 RMK A01 T10171021  RH  097%=      5-min Rain = 0
KSM2 141652Z 16010KT M02/M02 A303 RMK A01 T10161021  RH  097%=      5-min Rain = 0
KSM2 141653Z 17008KT M02/M02 A303 RMK A01 T10171021  RH  097%=      5-min Rain = 0
KSM2 141654Z 17007KT M02/M02 A303 RMK A01 T10171022  RH  097%=      5-min Rain = 0
KSM2 141655Z 16006KT M02/M02 A3029 RMK A01 T10171021  RH  097%=      5-min Rain = 0
KSM2 141656Z 15005KT M02/M02 A3029 RMK A01 T10161021  RH  097%=      5-min Rain = 0
KSM2 141657Z 15007KT M02/M02 A3029 RMK A01 T10161020  RH  097%=      5-min Rain = 0
KSM2 141658Z 15008KT M02/M02 A3029 RMK A01 T10151020  RH  097%=      5-min Rain = 0
KSM2 141659Z 15007KT M02/M02 A3029 RMK A01 T10161020  RH  097%=      5-min Rain = 0
KSM2 141700Z 16006KT M02/M02 A3029 RMK A01 T10161021  RH  097%=      5-min Rain = 0
KSM2 141701Z 15007KT M02/M02 A3029 RMK A01 T10161020  RH  097%=      5-min Rain = 0
KSM2 141702Z 17008KT M02/M02 A3029 RMK A01 T10161020  RH  097%=      5-min Rain = 0
KSM2 141703Z 16007KT M02/M02 A3029 RMK A01 T10151020  RH  097%=      5-min Rain = 0
KSM2 141704Z 15007KT M02/M02 A3029 RMK A01 T10151020  RH  097%=      5-min Rain = 0
KSM2 141705Z 16007KT M02/M02 A3029 RMK A01 T10151019  RH  097%=      5-min Rain = 0
KSM2 141706Z 15008KT M01/M02 A3029 RMK A01 T10141018  RH  097%=      5-min Rain = 0
KSM2 141707Z 17008KT M01/M02 A3029 RMK A01 T10141018  RH  097%=      5-min Rain = 0
KSM2 141708Z 17009KT M01/M02 A3029 RMK A01 T10141019  RH  097%=      5-min Rain = 0
KSM2 141709Z 17008KT M02/M02 A3029 RMK A01 T10151019  RH  097%=      5-min Rain = 0
KSM2 141710Z 16009KT M02/M02 A3029 RMK A01 T10151020  RH  097%=      5-min Rain = 0
KSM2 141711Z 16008KT M02/M02 A3029 RMK A01 T10151020  RH  097%=      5-min Rain = 0
KSM2 141712Z 16008KT M02/M02 A3029 RMK A01 T10151020  RH  097%=      5-min Rain = 0
KSM2 141713Z 16007KT M02/M02 A3029 RMK A01 T10151019  RH  097%=      5-min Rain = 0
KSM2 141714Z 16007KT M02/M02 A3029 RMK A01 T10151019  RH  097%=      5-min Rain = 0
KSM2 141715Z 15006KT M01/M02 A3029 RMK A01 T10141019  RH  097%=      5-min Rain = 0
KSM2 141716Z 16009KT M01/M02 A3029 RMK A01 T10131018  RH  097%=      5-min Rain = 0
KSM2 141717Z 16008KT M01/M02 A3029 RMK A01 T10141018  RH  097%=      5-min Rain = 0
KSM2 141718Z 17008KT M01/M02 A3029 RMK A01 T10141018  RH  097%=      5-min Rain = 0
KSM2 141719Z 17008KT M01/M02 A3029 RMK A01 T10131018  RH  097%=      5-min Rain = 0
KSM2 141720Z 18007KT M01/M02 A3029 RMK A01 T10131018  RH  097%=      5-min Rain = 0
KSM2 141721Z 17007KT M01/M02 A3029 RMK A01 T10131018  RH  097%=      5-min Rain = 0
KSM2 141722Z 16008KT M01/M02 A3029 RMK A01 T10131017  RH  097%=      5-min Rain = 0
KSM2 141723Z 16008KT M01/M02 A3029 RMK A01 T10121017  RH  097%=      5-min Rain = 0
KSM2 141724Z 16009KT M01/M02 A3029 RMK A01 T10121016  RH  097%=      5-min Rain = 0
KSM2 141725Z 16009KT M01/M02 A3029 RMK A01 T10121017  RH  097%=      5-min Rain = 0
KSM2 141726Z 16009KT M01/M02 A3029 RMK A01 T10121017  RH  097%=      5-min Rain = 0
KSM2 141727Z 17010KT M01/M02 A3029 RMK A01 T10121016  RH  097%=      5-min Rain = 0
KSM2 141728Z 17008KT M01/M02 A3029 RMK A01 T10121016  RH  097%=      5-min Rain = 0
KSM2 141729Z 18010KT M01/M02 A3029 RMK A01 T10111016  RH  097%=      5-min Rain = 0
KSM2 141730Z 18010KT M01/M02 A3029 RMK A01 T10121016  RH  097%=      5-min Rain = 0
KSM2 141731Z 18010KT M01/M02 A3029 RMK A01 T10121017  RH  097%=      5-min Rain = 0
KSM2 141732Z 17010KT M01/M02 A3029 RMK A01 T10111016  RH  097%=      5-min Rain = 0
KSM2 141733Z 17009KT M01/M02 A3029 RMK A01 T10111016  RH  097%=      5-min Rain = 0
KSM2 141734Z 18007KT M01/M02 A3029 RMK A01 T10111016  RH  097%=      5-min Rain = 0
KSM2 141735Z 18009KT M01/M02 A3029 RMK A01 T10101015  RH  097%=      5-min Rain = 0
KSM2 141736Z 18010KT M01/M01 A3029 RMK A01 T10101014  RH  097%=      5-min Rain = 0
KSM2 141737Z 17008G13KT M01/M01 A3029 RMK A01 T10091013  RH  097%=      5-min Rain = 0
KSM2 141738Z 18010KT M01/M01 A3028 RMK A01 T10081013  RH  097%=      5-min Rain = 0
KSM2 141739Z 17009KT M01/M01 A3028 RMK A01 T10091013  RH  097%=      5-min Rain = 0
KSM2 141740Z 17010KT M01/M01 A3028 RMK A01 T10091013  RH  097%=      5-min Rain = 0
KSM2 141741Z 18009KT M01/M01 A3028 RMK A01 T10081012  RH  097%=      5-min Rain = 0
KSM2 141742Z 18012KT M01/M01 A3028 RMK A01 T10071012  RH  097%=      5-min Rain = 0
KSM2 141743Z 17011KT M01/M01 A3028 RMK A01 T10081013  RH  097%=      5-min Rain = 0
KSM2 141744Z 17008KT M01/M01 A3028 RMK A01 T10081013  RH  096%=      5-min Rain = 0
KSM2 141745Z 17010KT M01/M01 A3028 RMK A01 T10081013  RH  096%=      5-min Rain = 0
KSM2 141746Z 18011KT M01/M01 A3028 RMK A01 T10071012  RH  097%=      5-min Rain = 0
KSM2 141747Z 19009KT M01/M01 A3028 RMK A01 T10071012  RH  096%=      5-min Rain = 0
KSM2 141748Z 19011KT M01/M01 A3028 RMK A01 T10071012  RH  096%=      5-min Rain = 0
KSM2 141749Z 18009KT M01/M01 A3028 RMK A01 T10071012  RH  096%=      5-min Rain = 0
KSM2 141750Z 17009KT M01/M01 A3028 RMK A01 T10071012  RH  096%=      5-min Rain = 0
KSM2 141751Z 18007KT M01/M01 A3028 RMK A01 T10071012  RH  096%=      5-min Rain = 0
KSM2 141752Z 17010KT M01/M01 A3028 RMK A01 T10061011  RH  096%=      5-min Rain = 0
KSM2 141753Z 18009G14KT M01/M01 A3028 RMK A01 T10071012  RH  096%=      5-min Rain = 0
KSM2 141754Z 18009KT M01/M01 A3028 RMK A01 T10061012  RH  096%=      5-min Rain = 0
KSM2 141755Z 17009KT M01/M01 A3028 RMK A01 T10061011  RH  096%=      5-min Rain = 0
KSM2 141756Z 18010KT M01/M01 A3028 RMK A01 T10061012  RH  096%=      5-min Rain = 0
KSM2 141757Z 17010KT M01/M01 A3028 RMK A01 T10061012  RH  096%=      5-min Rain = 0
KSM2 141758Z 17010KT M01/M01 A3028 RMK A01 T10071013  RH  096%=      5-min Rain = 0
KSM2 141759Z 17010KT M01/M01 A3028 RMK A01 T10071013  RH  096%=      5-min Rain = 0
KSM2 141800Z 18009KT M01/M01 A3028 RMK A01 T10061012  RH  096%=      5-min Rain = 0
KSM2 141801Z 18013KT M01/M01 A3028 RMK A01 T10061012  RH  096%=      5-min Rain = 0
KSM2 141802Z 19011KT M01/M01 A3028 RMK A01 T10061012  RH  096%=      5-min Rain = 0
KSM2 141803Z 19011KT M01/M01 A3028 RMK A01 T10061012  RH  096%=      5-min Rain = 0
KSM2 141804Z 19010KT M01/M01 A3028 RMK A01 T10061012  RH  095%=      5-min Rain = 0
KSM2 141805Z 19009KT M01/M01 A3028 RMK A01 T10061013  RH  095%=      5-min Rain = 0
KSM2 141806Z 19010KT M01/M01 A3028 RMK A01 T10051012  RH  095%=      5-min Rain = 0
KSM2 141807Z 18011KT M00/M01 A3028 RMK A01 T10041011  RH  095%=      5-min Rain = 0
KSM2 141808Z 18009KT M00/M01 A3028 RMK A01 T10041011  RH  095%=      5-min Rain = 0
KSM2 141809Z 18009KT M00/M01 A3028 RMK A01 T10041011  RH  095%=      5-min Rain = 0
KSM2 141810Z 18010KT M00/M01 A3028 RMK A01 T10041011  RH  095%=      5-min Rain = 0
KSM2 141811Z 17011KT M00/M01 A3028 RMK A01 T10041011  RH  095%=      5-min Rain = 0
KSM2 141812Z 18011KT M00/M01 A3028 RMK A01 T10041011  RH  095%=      5-min Rain = 0
KSM2 141813Z 19012KT M00/M01 A3028 RMK A01 T10041011  RH  095%=      5-min Rain = 0
KSM2 141814Z 20011KT M00/M01 A3027 RMK A01 T10041011  RH  094%=      5-min Rain = 0
KSM2 141815Z 19011KT M00/M01 A3027 RMK A01 T10041012  RH  094%=      5-min Rain = 0
KSM2 141816Z 18011KT M00/M01 A3027 RMK A01 T10041012  RH  094%=      5-min Rain = 0
KSM2 141817Z 20012KT M00/M01 A3027 RMK A01 T10031011  RH  094%=      5-min Rain = 0
KSM2 141818Z 19011KT M00/M01 A3027 RMK A01 T10031012  RH  094%=      5-min Rain = 0
KSM2 141819Z 18011KT M00/M01 A3027 RMK A01 T10031011  RH  094%=      5-min Rain = 0
KSM2 141820Z 19010G16KT M00/M01 A3027 RMK A01 T10021011  RH  094%=      5-min Rain = 0
KSM2 141821Z 18012KT M00/M01 A3027 RMK A01 T10021011  RH  094%=      5-min Rain = 0
KSM2 141822Z 18012KT M00/M01 A3027 RMK A01 T10021012  RH  093%=      5-min Rain = 0
KSM2 141823Z 18008KT M00/M01 A3027 RMK A01 T10021012  RH  093%=      5-min Rain = 0
KSM2 141824Z 19011KT 00/01 A3027 RMK A01 T00-000-9  RH  094%=      5-min Rain = 0
KSM2 141825Z 19012KT 00/01 A3027 RMK A01 T00-00-10  RH  093%=      5-min Rain = 0
KSM2 141826Z 19008KT M00/M01 A3027 RMK A01 T10011011  RH  093%=      5-min Rain = 0
KSM2 141827Z 20011KT 00/01 A3027 RMK A01 T000000-9  RH  093%=      5-min Rain = 0
KSM2 141828Z 19011KT 00/01 A3027 RMK A01 T00000-10  RH  093%=      5-min Rain = 0
KSM2 141829Z 19011KT 00/01 A3027 RMK A01 T00000-10  RH  092%=      5-min Rain = 0
KSM2 141830Z 18009KT M00/M01 A3027 RMK A01 T10011012  RH  092%=      5-min Rain = 0
KSM2 141831Z 18010KT M00/M01 A3027 RMK A01 T10011011  RH  093%=      5-min Rain = 0
KSM2 141832Z 18010KT 00/01 A3027 RMK A01 T00-00-11  RH  093%=      5-min Rain = 0
KSM2 141833Z 19010KT M00/M01 A3027 RMK A01 T10021012  RH  093%=      5-min Rain = 0
KSM2 141834Z 19010KT M00/M01 A3027 RMK A01 T10031013  RH  093%=      5-min Rain = 0
KSM2 141835Z 17008KT M00/M01 A3027 RMK A01 T10021012  RH  093%=      5-min Rain = 0
KSM2 141836Z 18011KT M00/M01 A3027 RMK A01 T10021011  RH  093%=      5-min Rain = 0
KSM2 141837Z 18009KT M00/M01 A3027 RMK A01 T10021012  RH  093%=      5-min Rain = 0
KSM2 141838Z 18009KT M00/M01 A3026 RMK A01 T10021012  RH  093%=      5-min Rain = 0
KSM2 141839Z 18009KT M00/M01 A3027 RMK A01 T10011010  RH  094%=      5-min Rain = 0
KSM2 141840Z 18011KT 00/01 A3026 RMK A01 T00-00-10  RH  093%=      5-min Rain = 0
KSM2 141841Z 18011KT 00/01 A3026 RMK A01 T00-00-10  RH  093%=      5-min Rain = 0
KSM2 141842Z 20009KT M00/M01 A3026 RMK A01 T10011011  RH  093%=      5-min Rain = 0
KSM2 141843Z 19008KT M00/M01 A3026 RMK A01 T10011011  RH  093%=      5-min Rain = 0
KSM2 141844Z 19010KT 00/M01 A3026 RMK A01 T00011008  RH  094%=      5-min Rain = 0
KSM2 141845Z 19012KT 00/M01 A3026 RMK A01 T00011008  RH  093%=      5-min Rain = 0
KSM2 141846Z 18011KT 00/M01 A3026 RMK A01 T00011009  RH  093%=      5-min Rain = 0
KSM2 141847Z 18011KT 00/01 A3026 RMK A01 T00000-10  RH  093%=      5-min Rain = 0
KSM2 141848Z 19011KT 00/01 A3026 RMK A01 T00-00-10  RH  093%=      5-min Rain = 0
KSM2 141849Z 19009KT 00/01 A3026 RMK A01 T00-00-10  RH  093%=      5-min Rain = 0
KSM2 141850Z 19010KT 00/01 A3026 RMK A01 T00-00-10  RH  093%=      5-min Rain = 0
KSM2 141851Z 17009KT 00/01 A3026 RMK A01 T00-00-10  RH  093%=      5-min Rain = 0
KSM2 141852Z 18009KT M00/M01 A3026 RMK A01 T10011010  RH  093%=      5-min Rain = 0
KSM2 141853Z 19007KT 00/01 A3026 RMK A01 T00-00-10  RH  093%=      5-min Rain = 0
KSM2 141854Z 17006KT 00/01 A3025 RMK A01 T000000-9  RH  094%=      5-min Rain = 0
KSM2 141855Z 18007KT 00/M01 A3025 RMK A01 T00011008  RH  094%=      5-min Rain = 0
KSM2 141856Z 18011KT 00/M01 A3025 RMK A01 T00021008  RH  094%=      5-min Rain = 0
KSM2 141857Z 18011KT 00/M01 A3025 RMK A01 T00011009  RH  093%=      5-min Rain = 0
KSM2 141858Z 18009KT 00/01 A3025 RMK A01 T00-00-10  RH  093%=      5-min Rain = 0
KSM2 141859Z 18010KT 00/01 A3025 RMK A01 T00-00-10  RH  093%=      5-min Rain = 0
KSM2 141900Z 18010KT 00/01 A3025 RMK A01 T000000-9  RH  093%=      5-min Rain = 0
KSM2 141901Z 18008KT 00/01 A3025 RMK A01 T00-00-10  RH  093%=      5-min Rain = 0
KSM2 141902Z 18010KT 00/01 A3025 RMK A01 T000000-9  RH  094%=      5-min Rain = 0
KSM2 141903Z 19008KT 00/M01 A3025 RMK A01 T00011008  RH  094%=      5-min Rain = 0
KSM2 141904Z 19008KT 00/M01 A3025 RMK A01 T00021007  RH  094%=      5-min Rain = 0
KSM2 141905Z 19011KT 00/M01 A3024 RMK A01 T00031006  RH  093%=      5-min Rain = 0
KSM2 141906Z 18011KT 00/M01 A3024 RMK A01 T00031008  RH  092%=      5-min Rain = 0
KSM2 141907Z 17008KT 00/M01 A3025 RMK A01 T00021009  RH  092%=      5-min Rain = 0
KSM2 141908Z 17009KT 00/M01 A3025 RMK A01 T00011010  RH  092%=      5-min Rain = 0
KSM2 141909Z 17010KT 00/M01 A3025 RMK A01 T00011010  RH  092%=      5-min Rain = 0
KSM2 141910Z 17009KT 00/01 A3025 RMK A01 T00000-11  RH  092%=      5-min Rain = 0
KSM2 141911Z 18008KT 00/01 A3025 RMK A01 T00000-10  RH  093%=      5-min Rain = 0
KSM2 141912Z 19009KT 00/M01 A3025 RMK A01 T00011009  RH  093%=      5-min Rain = 0
KSM2 141913Z 19009KT 00/M01 A3025 RMK A01 T00021008  RH  093%=      5-min Rain = 0
KSM2 141914Z 17011KT 00/M01 A3025 RMK A01 T00021008  RH  093%=      5-min Rain = 0
KSM2 141915Z 18008KT 00/M01 A3025 RMK A01 T00021009  RH  093%=      5-min Rain = 0
KSM2 141916Z 18011KT 00/M01 A3025 RMK A01 T00021009  RH  093%=      5-min Rain = 0
KSM2 141917Z 17008KT 00/M01 A3025 RMK A01 T00021009  RH  092%=      5-min Rain = 0
KSM2 141918Z 18010KT 00/M01 A3025 RMK A01 T00011010  RH  092%=      5-min Rain = 0
KSM2 141919Z 19011KT 00/M01 A3025 RMK A01 T00021009  RH  093%=      5-min Rain = 0
KSM2 141920Z 18009KT 00/M01 A3024 RMK A01 T00021009  RH  093%=      5-min Rain = 0
KSM2 141921Z 17009KT 00/M01 A3024 RMK A01 T00021009  RH  093%=      5-min Rain = 0
KSM2 141922Z 17009KT 00/M01 A3024 RMK A01 T00021009  RH  092%=      5-min Rain = 0
KSM2 141923Z 17007KT 00/M01 A3024 RMK A01 T00021009  RH  092%=      5-min Rain = 0
KSM2 141924Z 16008KT 00/M01 A3024 RMK A01 T00021009  RH  093%=      5-min Rain = 0
KSM2 141925Z 18008KT 00/M01 A3024 RMK A01 T00031008  RH  093%=      5-min Rain = 0
KSM2 141926Z 18012KT 00/M01 A3024 RMK A01 T00031009  RH  092%=      5-min Rain = 0
KSM2 141927Z 18012KT 00/M01 A3024 RMK A01 T00021009  RH  092%=      5-min Rain = 0
KSM2 141928Z 18009KT 00/M01 A3024 RMK A01 T00021010  RH  092%=      5-min Rain = 0
KSM2 141929Z 19011KT 00/M01 A3024 RMK A01 T00021009  RH  092%=      5-min Rain = 0
KSM2 141930Z 18009KT 00/M01 A3024 RMK A01 T00021009  RH  092%=      5-min Rain = 0
KSM2 141931Z 18012KT 00/M01 A3024 RMK A01 T00021008  RH  093%=      5-min Rain = 0
KSM2 141932Z 19009KT 00/M01 A3024 RMK A01 T00031009  RH  092%=      5-min Rain = 0
KSM2 141933Z 17009KT 00/M01 A3024 RMK A01 T00031008  RH  092%=      5-min Rain = 0
KSM2 141934Z 18011KT 00/M01 A3024 RMK A01 T00031008  RH  092%=      5-min Rain = 0
KSM2 141935Z 19008KT 00/M01 A3024 RMK A01 T00031009  RH  092%=      5-min Rain = 0
KSM2 141936Z 18010KT 00/M01 A3024 RMK A01 T00031009  RH  092%=      5-min Rain = 0
KSM2 141937Z 18009KT 00/M01 A3024 RMK A01 T00031009  RH  092%=      5-min Rain = 0
KSM2 141938Z 18012KT 00/M01 A3024 RMK A01 T00031009  RH  092%=      5-min Rain = 0
KSM2 141939Z 18011KT 00/M01 A3024 RMK A01 T00031009  RH  092%=      5-min Rain = 0
KSM2 141940Z 17009KT 00/M01 A3024 RMK A01 T00041008  RH  092%=      5-min Rain = 0
KSM2 141941Z 19010KT 00/M01 A3024 RMK A01 T00041009  RH  091%=      5-min Rain = 0
KSM2 141942Z 18011KT 00/M01 A3024 RMK A01 T00041009  RH  091%=      5-min Rain = 0
KSM2 141943Z 18011KT 00/M01 A3024 RMK A01 T00041009  RH  091%=      5-min Rain = 0
KSM2 141944Z 18009KT 00/M01 A3024 RMK A01 T00041009  RH  091%=      5-min Rain = 0
KSM2 141945Z 20010KT 01/M01 A3024 RMK A01 T00051008  RH  092%=      5-min Rain = 0
KSM2 141946Z 19009KT 00/M01 A3024 RMK A01 T00041008  RH  091%=      5-min Rain = 0
KSM2 141947Z 18009KT 00/M01 A3024 RMK A01 T00041008  RH  092%=      5-min Rain = 0
KSM2 141948Z 19011KT 00/M01 A3024 RMK A01 T00041008  RH  092%=      5-min Rain = 0
KSM2 141949Z 19013KT 01/M01 A3024 RMK A01 T00051008  RH  091%=      5-min Rain = 0
KSM2 141950Z 20012KT 00/M01 A3024 RMK A01 T00041009  RH  091%=      5-min Rain = 0
KSM2 141951Z 20012KT 00/M01 A3023 RMK A01 T00041008  RH  091%=      5-min Rain = 0
KSM2 141952Z 20011KT 01/M01 A3023 RMK A01 T00051008  RH  091%=      5-min Rain = 0
KSM2 141953Z 19010KT 00/M01 A3023 RMK A01 T00041008  RH  091%=      5-min Rain = 0
KSM2 141954Z 18011KT 01/M01 A3023 RMK A01 T00051008  RH  091%=      5-min Rain = 0
KSM2 141955Z 17009KT 00/M01 A3023 RMK A01 T00041008  RH  091%=      5-min Rain = 0
KSM2 141956Z 16009KT 00/M01 A3023 RMK A01 T00041009  RH  091%=      5-min Rain = 0
KSM2 141957Z 17010KT 00/M01 A3022 RMK A01 T00041009  RH  091%=      5-min Rain = 0
KSM2 141958Z 18011KT 00/M01 A3022 RMK A01 T00041008  RH  091%=      5-min Rain = 0
KSM2 141959Z 18012KT 01/M01 A3022 RMK A01 T00051008  RH  091%=      5-min Rain = 0
KSM2 142000Z 19010KT 00/M01 A3022 RMK A01 T00041009  RH  091%=      5-min Rain = 0
KSM2 142001Z 18010KT 01/M01 A3022 RMK A01 T00051008  RH  091%=      5-min Rain = 0
KSM2 142002Z 18009KT 01/M01 A3022 RMK A01 T00051008  RH  091%=      5-min Rain = 0
KSM2 142003Z 18009KT 01/M01 A3022 RMK A01 T00061006  RH  092%=      5-min Rain = 0
KSM2 142004Z 19010KT 01/M01 A3022 RMK A01 T00051007  RH  092%=      5-min Rain = 0
KSM2 142005Z 19010KT 01/M01 A3022 RMK A01 T00061007  RH  091%=      5-min Rain = 0
KSM2 142006Z 19010KT 01/M01 A3022 RMK A01 T00051008  RH  091%=      5-min Rain = 0
KSM2 142007Z 18010KT 01/M01 A3022 RMK A01 T00051007  RH  092%=      5-min Rain = 0
KSM2 142008Z 18011G16KT 01/M01 A3022 RMK A01 T00061006  RH  092%=      5-min Rain = 0
KSM2 142009Z 18011KT 01/M01 A3022 RMK A01 T00071007  RH  091%=      5-min Rain = 0
KSM2 142010Z 18007KT 01/M01 A3021 RMK A01 T00061008  RH  090%=      5-min Rain = 0
KSM2 142011Z 18008KT 01/M01 A3021 RMK A01 T00081006  RH  091%=      5-min Rain = 0
KSM2 142012Z 18008KT 01/M01 A3021 RMK A01 T00081005  RH  091%=      5-min Rain = 0
KSM2 142013Z 18007KT 01/M01 A3021 RMK A01 T00081005  RH  091%=      5-min Rain = 0
KSM2 142014Z 18010KT 01/M01 A3021 RMK A01 T00081006  RH  090%=      5-min Rain = 0
KSM2 142015Z 18009KT 01/M01 A3021 RMK A01 T00071007  RH  090%=      5-min Rain = 0
KSM2 142016Z 19011KT 01/M01 A3021 RMK A01 T00071006  RH  091%=      5-min Rain = 0
KSM2 142017Z 18011KT 01/M01 A3021 RMK A01 T00071006  RH  091%=      5-min Rain = 0
KSM2 142018Z 18009KT 01/M01 A3021 RMK A01 T00061007  RH  091%=      5-min Rain = 0
KSM2 142019Z 18009KT 01/M01 A3021 RMK A01 T00071005  RH  091%=      5-min Rain = 0
KSM2 142020Z 20009KT 01/M01 A3021 RMK A01 T00081005  RH  091%=      5-min Rain = 0
KSM2 142021Z 20012KT 01/M01 A3021 RMK A01 T00081005  RH  091%=      5-min Rain = 0
KSM2 142022Z 19008KT 01/M01 A3021 RMK A01 T00081006  RH  090%=      5-min Rain = 0
KSM2 142023Z 19010KT 01/M01 A302 RMK A01 T00081006  RH  091%=      5-min Rain = 0
KSM2 142024Z 17011KT 01/M01 A302 RMK A01 T00071006  RH  091%=      5-min Rain = 0
KSM2 142025Z 18009KT 01/M01 A302 RMK A01 T00061008  RH  090%=      5-min Rain = 0
KSM2 142026Z 19010KT 01/M01 A302 RMK A01 T00081005  RH  091%=      5-min Rain = 0
KSM2 142027Z 19009KT 01/M00 A302 RMK A01 T00101003  RH  091%=      5-min Rain = 0
KSM2 142028Z 17009KT 01/M00 A302 RMK A01 T00101004  RH  090%=      5-min Rain = 0
KSM2 142029Z 17011KT 01/M01 A302 RMK A01 T00081007  RH  089%=      5-min Rain = 0
KSM2 142030Z 16009KT 01/M01 A302 RMK A01 T00061009  RH  090%=      5-min Rain = 0
KSM2 142031Z 16009KT 01/M01 A302 RMK A01 T00061007  RH  091%=      5-min Rain = 0
KSM2 142032Z 16010KT 01/M01 A302 RMK A01 T00071007  RH  091%=      5-min Rain = 0
KSM2 142033Z 19010KT 01/M01 A302 RMK A01 T00071007  RH  091%=      5-min Rain = 0
KSM2 142034Z 19011KT 01/M01 A302 RMK A01 T00071006  RH  091%=      5-min Rain = 0
KSM2 142035Z 18011KT 01/M01 A302 RMK A01 T00071006  RH  091%=      5-min Rain = 0
KSM2 142036Z 18010KT 01/M01 A302 RMK A01 T00081005  RH  091%=      5-min Rain = 0
KSM2 142037Z 18010KT 01/M01 A302 RMK A01 T00091005  RH  091%=      5-min Rain = 0
KSM2 142038Z 17010KT 01/M00 A3019 RMK A01 T00101004  RH  090%=      5-min Rain = 0
KSM2 142039Z 18012KT 01/M01 A3019 RMK A01 T00101006  RH  090%=      5-min Rain = 0
KSM2 142040Z 18012KT 01/M01 A3019 RMK A01 T00091007  RH  089%=      5-min Rain = 0
KSM2 142041Z 19012KT 01/M01 A3019 RMK A01 T00091007  RH  089%=      5-min Rain = 0
KSM2 142042Z 19012KT 01/M01 A3019 RMK A01 T00091006  RH  090%=      5-min Rain = 0
KSM2 142043Z 18010KT 01/M01 A3019 RMK A01 T00101005  RH  090%=      5-min Rain = 0
KSM2 142044Z 18010KT 01/M01 A3019 RMK A01 T00101005  RH  090%=      5-min Rain = 0
KSM2 142045Z 18011KT 01/M00 A3019 RMK A01 T00111004  RH  089%=      5-min Rain = 0
KSM2 142046Z 18012KT 01/M01 A3019 RMK A01 T00121005  RH  089%=      5-min Rain = 0
KSM2 142047Z 18011G16KT 01/M01 A3019 RMK A01 T00111006  RH  088%=      5-min Rain = 0
KSM2 142048Z 19009KT 01/M01 A3019 RMK A01 T00111006  RH  089%=      5-min Rain = 0
KSM2 142049Z 19010G15KT 01/M00 A3019 RMK A01 T00121004  RH  089%=      5-min Rain = 0
KSM2 142050Z 19012KT 01/M01 A3019 RMK A01 T00131005  RH  088%=      5-min Rain = 0
KSM2 142051Z 18009KT 01/M01 A3019 RMK A01 T00111006  RH  088%=      5-min Rain = 0
KSM2 142052Z 18011KT 01/M01 A3019 RMK A01 T00121005  RH  089%=      5-min Rain = 0
KSM2 142053Z 18011KT 01/M01 A3019 RMK A01 T00121005  RH  088%=      5-min Rain = 0
KSM2 142054Z 17008KT 01/M00 A3019 RMK A01 T00131003  RH  089%=      5-min Rain = 0
KSM2 142055Z 17008KT 01/M00 A3019 RMK A01 T00141004  RH  088%=      5-min Rain = 0
KSM2 142056Z 17011KT 01/M00 A3019 RMK A01 T00141004  RH  088%=      5-min Rain = 0
KSM2 142057Z 18011KT 01/M00 A3019 RMK A01 T00131004  RH  088%=      5-min Rain = 0
KSM2 142058Z 18011KT 01/M01 A3018 RMK A01 T00131005  RH  088%=      5-min Rain = 0
KSM2 142059Z 17010KT 01/M01 A3018 RMK A01 T00121005  RH  088%=      5-min Rain = 0
KSM2 142100Z 18010KT 01/M01 A3018 RMK A01 T00131005  RH  088%=      5-min Rain = 0
KSM2 142101Z 18010KT 01/M01 A3018 RMK A01 T00131005  RH  088%=      5-min Rain = 0
KSM2 142102Z 17008KT 01/M00 A3018 RMK A01 T00131004  RH  088%=      5-min Rain = 0
KSM2 142103Z 16010KT 01/M00 A3018 RMK A01 T00141003  RH  088%=      5-min Rain = 0
KSM2 142104Z 17006KT 01/M01 A3018 RMK A01 T00131005  RH  088%=      5-min Rain = 0
KSM2 142105Z 19007KT 01/M00 A3018 RMK A01 T00141003  RH  089%=      5-min Rain = 0
KSM2 142106Z 18011KT 02/M00 A3018 RMK A01 T00151002  RH  089%=      5-min Rain = 0
KSM2 142107Z 17009G14KT 02/M00 A3018 RMK A01 T00151004  RH  088%=      5-min Rain = 0
KSM2 142108Z 16010KT 01/M00 A3018 RMK A01 T00141003  RH  088%=      5-min Rain = 0
KSM2 142109Z 17010KT 01/M01 A3018 RMK A01 T00141005  RH  088%=      5-min Rain = 0
KSM2 142110Z 17011KT 01/M00 A3018 RMK A01 T00131004  RH  088%=      5-min Rain = 0
KSM2 142111Z 16010KT 01/M00 A3018 RMK A01 T00131004  RH  089%=      5-min Rain = 0
KSM2 142112Z 18009KT 01/M00 A3018 RMK A01 T00131004  RH  089%=      5-min Rain = 0
KSM2 142113Z 18011KT 01/M00 A3018 RMK A01 T00141003  RH  088%=      5-min Rain = 0
KSM2 142114Z 18012KT 01/M00 A3018 RMK A01 T00141003  RH  088%=      5-min Rain = 0
KSM2 142115Z 18011KT 01/M00 A3018 RMK A01 T00141003  RH  088%=      5-min Rain = 0
KSM2 142116Z 17010KT 01/M00 A3018 RMK A01 T00141003  RH  088%=      5-min Rain = 0
KSM2 142117Z 19010KT 02/M00 A3018 RMK A01 T00151003  RH  088%=      5-min Rain = 0
KSM2 142118Z 19009KT 02/M00 A3018 RMK A01 T00161002  RH  088%=      5-min Rain = 0
KSM2 142119Z 19012KT 02/M00 A3018 RMK A01 T00161002  RH  088%=      5-min Rain = 0
KSM2 142120Z 19014KT 02/M00 A3018 RMK A01 T00161003  RH  087%=      5-min Rain = 0
KSM2 142121Z 17010KT 02/M00 A3018 RMK A01 T00151004  RH  087%=      5-min Rain = 0
KSM2 142122Z 18010KT 02/M00 A3018 RMK A01 T00151003  RH  087%=      5-min Rain = 0
KSM2 142123Z 18010KT 02/M00 A3018 RMK A01 T00161003  RH  087%=      5-min Rain = 0
KSM2 142124Z 18010KT 02/M00 A3018 RMK A01 T00161002  RH  087%=      5-min Rain = 0
KSM2 142125Z 18010KT 02/M00 A3018 RMK A01 T00171003  RH  087%=      5-min Rain = 0
KSM2 142126Z 18010KT 02/M00 A3018 RMK A01 T00161004  RH  087%=      5-min Rain = 0
KSM2 142127Z 19013KT 02/M00 A3018 RMK A01 T00171002  RH  087%=      5-min Rain = 0
KSM2 142128Z 19013KT 02/M00 A3018 RMK A01 T00171003  RH  087%=      5-min Rain = 0
KSM2 142129Z 19010KT 02/M00 A3018 RMK A01 T00171004  RH  087%=      5-min Rain = 0
KSM2 142130Z 19008KT 02/M00 A3018 RMK A01 T00171002  RH  088%=      5-min Rain = 0
KSM2 142131Z 19009KT 02/M00 A3017 RMK A01 T00181001  RH  087%=      5-min Rain = 0
KSM2 142132Z 19013KT 02/M00 A3017 RMK A01 T00181003  RH  086%=      5-min Rain = 0
KSM2 142133Z 17011KT 02/M00 A3017 RMK A01 T00181003  RH  086%=      5-min Rain = 0
KSM2 142134Z 18009KT 02/M00 A3017 RMK A01 T00181003  RH  086%=      5-min Rain = 0
KSM2 142135Z 18009KT 02/M00 A3017 RMK A01 T00191002  RH  086%=      5-min Rain = 0
KSM2 142136Z 17011KT 02/M00 A3017 RMK A01 T00191002  RH  086%=      5-min Rain = 0
KSM2 142137Z 17011KT 02/M00 A3017 RMK A01 T00181003  RH  086%=      5-min Rain = 0
KSM2 142138Z 18010KT 02/M00 A3017 RMK A01 T00181004  RH  086%=      5-min Rain = 0
KSM2 142139Z 16011KT 02/M00 A3017 RMK A01 T00171003  RH  086%=      5-min Rain = 0
KSM2 142140Z 17011KT 02/M00 A3017 RMK A01 T00181003  RH  086%=      5-min Rain = 0
KSM2 142141Z 17009KT 02/M00 A3017 RMK A01 T00181003  RH  086%=      5-min Rain = 0
KSM2 142142Z 17012KT 02/M00 A3017 RMK A01 T00181003  RH  086%=      5-min Rain = 0
KSM2 142143Z 17010KT 02/M00 A3017 RMK A01 T00181002  RH  086%=      5-min Rain = 0
KSM2 142144Z 17009KT 02/M00 A3017 RMK A01 T00181003  RH  086%=      5-min Rain = 0
KSM2 142145Z 17011G16KT 02/M00 A3017 RMK A01 T00181003  RH  086%=      5-min Rain = 0
KSM2 142146Z 16012KT 02/M00 A3017 RMK A01 T00181003  RH  086%=      5-min Rain = 0
KSM2 142147Z 17011KT 02/M00 A3017 RMK A01 T00181003  RH  086%=      5-min Rain = 0
KSM2 142148Z 17009KT 02/M00 A3017 RMK A01 T00181002  RH  087%=      5-min Rain = 0
KSM2 142149Z 17010KT 02/M00 A3017 RMK A01 T00181003  RH  086%=      5-min Rain = 0
KSM2 142150Z 18010KT 02/M00 A3017 RMK A01 T00181003  RH  086%=      5-min Rain = 0
KSM2 142151Z 19010KT 02/M00 A3017 RMK A01 T00181003  RH  086%=      5-min Rain = 0
KSM2 142152Z 17009KT 02/M00 A3017 RMK A01 T00181001  RH  087%=      5-min Rain = 0
KSM2 142153Z 17009KT 02/M00 A3017 RMK A01 T00191002  RH  086%=      5-min Rain = 0
KSM2 142154Z 17007KT 02/M00 A3017 RMK A01 T00191003  RH  086%=      5-min Rain = 0
KSM2 142155Z 18009KT 02/M00 A3017 RMK A01 T00191002  RH  086%=      5-min Rain = 0
KSM2 142156Z 19012KT 02/M00 A3017 RMK A01 T00201001  RH  086%=      5-min Rain = 0
KSM2 142157Z 19011KT 02/M00 A3017 RMK A01 T00201002  RH  085%=      5-min Rain = 0
KSM2 142158Z 18010KT 02/M00 A3017 RMK A01 T00211002  RH  085%=      5-min Rain = 0
KSM2 142159Z 19010KT 02/M00 A3017 RMK A01 T00201002  RH  085%=      5-min Rain = 0
KSM2 142200Z 18012KT 02/M00 A3017 RMK A01 T00211001  RH  085%=      5-min Rain = 0
KSM2 142201Z 18010KT 02/M00 A3017 RMK A01 T00211002  RH  085%=      5-min Rain = 0
KSM2 142202Z 18011KT 02/M00 A3017 RMK A01 T00201002  RH  085%=      5-min Rain = 0
KSM2 142203Z 19011KT 02/M00 A3017 RMK A01 T00201002  RH  086%=      5-min Rain = 0
KSM2 142204Z 20010KT 02/M00 A3017 RMK A01 T00201001  RH  086%=      5-min Rain = 0
KSM2 142205Z 19011KT 02/00 A3017 RMK A01 T002000-0  RH  086%=      5-min Rain = 0
KSM2 142206Z 17012KT 02/00 A3017 RMK A01 T002000-0  RH  086%=      5-min Rain = 0
KSM2 142207Z 17010KT 02/M00 A3017 RMK A01 T00201001  RH  086%=      5-min Rain = 0
KSM2 142208Z 17010KT 02/M00 A3017 RMK A01 T00191002  RH  086%=      5-min Rain = 0
KSM2 142209Z 16010KT 02/M00 A3017 RMK A01 T00191002  RH  086%=      5-min Rain = 0
KSM2 142210Z 16009KT 02/M00 A3016 RMK A01 T00191002  RH  086%=      5-min Rain = 0
KSM2 142211Z 17008KT 02/M00 A3016 RMK A01 T00191002  RH  086%=      5-min Rain = 0
KSM2 142212Z 17011KT 02/M00 A3016 RMK A01 T00191001  RH  086%=      5-min Rain = 0
KSM2 142213Z 18011KT 02/M00 A3016 RMK A01 T00191003  RH  086%=      5-min Rain = 0
KSM2 142214Z 18010KT 02/M00 A3016 RMK A01 T00191002  RH  086%=      5-min Rain = 0
KSM2 142215Z 18010KT 02/M00 A3016 RMK A01 T00191002  RH  086%=      5-min Rain = 0
KSM2 142216Z 16007KT 02/M00 A3016 RMK A01 T00191002  RH  086%=      5-min Rain = 0
KSM2 142217Z 18009KT 02/M00 A3016 RMK A01 T00201001  RH  086%=      5-min Rain = 0
KSM2 142218Z 18010G15KT 02/M00 A3016 RMK A01 T00201001  RH  086%=      5-min Rain = 0
KSM2 142219Z 19011KT 02/M00 A3016 RMK A01 T00211001  RH  086%=      5-min Rain = 0
KSM2 142220Z 19012KT 02/M00 A3016 RMK A01 T00221001  RH  085%=      5-min Rain = 0
KSM2 142221Z 19010KT 02/M00 A3016 RMK A01 T00211002  RH  085%=      5-min Rain = 0
KSM2 142222Z 19012KT 02/M00 A3016 RMK A01 T00211001  RH  085%=      5-min Rain = 0
KSM2 142223Z 20012KT 02/M00 A3016 RMK A01 T00221001  RH  085%=      5-min Rain = 0
KSM2 142224Z 19013KT 02/M00 A3016 RMK A01 T00221001  RH  085%=      5-min Rain = 0
KSM2 142225Z 19011KT 02/M00 A3016 RMK A01 T00221001  RH  085%=      5-min Rain = 0
KSM2 142226Z 18010KT 02/00 A3016 RMK A01 T00220000  RH  085%=      5-min Rain = 0
KSM2 142227Z 17010KT 02/00 A3016 RMK A01 T00230001  RH  085%=      5-min Rain = 0
KSM2 142228Z 17009KT 02/00 A3016 RMK A01 T002300-0  RH  085%=      5-min Rain = 0
KSM2 142229Z 16008KT 02/00 A3016 RMK A01 T002300-0  RH  085%=      5-min Rain = 0
KSM2 142230Z 18011KT 02/00 A3016 RMK A01 T00230000  RH  085%=      5-min Rain = 0
KSM2 142231Z 16009KT 02/M00 A3016 RMK A01 T00221001  RH  085%=      5-min Rain = 0
KSM2 142232Z 16010KT 02/M00 A3016 RMK A01 T00221001  RH  085%=      5-min Rain = 0
KSM2 142233Z 16010KT 02/M00 A3016 RMK A01 T00211002  RH  085%=      5-min Rain = 0
KSM2 142234Z 17010KT 02/M00 A3016 RMK A01 T00201002  RH  085%=      5-min Rain = 0
KSM2 142235Z 18011KT 02/M00 A3016 RMK A01 T00211001  RH  086%=      5-min Rain = 0
KSM2 142236Z 17012KT 02/M00 A3016 RMK A01 T00211002  RH  085%=      5-min Rain = 0
KSM2 142237Z 18010KT 02/M00 A3016 RMK A01 T00211002  RH  085%=      5-min Rain = 0
KSM2 142238Z 18008KT 02/M00 A3016 RMK A01 T00201002  RH  085%=      5-min Rain = 0
KSM2 142239Z 17008KT 02/00 A3016 RMK A01 T002100-0  RH  086%=      5-min Rain = 0
KSM2 142240Z 17008KT 02/M00 A3016 RMK A01 T00221001  RH  085%=      5-min Rain = 0
KSM2 142241Z 18009KT 02/M00 A3016 RMK A01 T00211001  RH  085%=      5-min Rain = 0
KSM2 142242Z 15007KT 02/00 A3016 RMK A01 T00220000  RH  086%=      5-min Rain = 0
KSM2 142243Z 16008KT 02/00 A3016 RMK A01 T002200-0  RH  085%=      5-min Rain = 0
KSM2 142244Z 16009KT 02/00 A3016 RMK A01 T002200-0  RH  085%=      5-min Rain = 0
KSM2 142245Z 16011KT 02/M00 A3016 RMK A01 T00221001  RH  085%=      5-min Rain = 0
KSM2 142246Z 17011KT 02/M00 A3016 RMK A01 T00211002  RH  085%=      5-min Rain = 0
KSM2 142247Z 17008KT 02/M00 A3016 RMK A01 T00201001  RH  086%=      5-min Rain = 0
KSM2 142248Z 17010KT 02/00 A3016 RMK A01 T002100-0  RH  086%=      5-min Rain = 0
KSM2 142249Z 18010KT 02/M00 A3016 RMK A01 T00211001  RH  086%=      5-min Rain = 0
KSM2 142250Z 18008KT 02/M00 A3016 RMK A01 T00211001  RH  085%=      5-min Rain = 0
KSM2 142251Z 18006KT 02/00 A3016 RMK A01 T00210000  RH  086%=      5-min Rain = 0
KSM2 142252Z 18012KT 02/00 A3016 RMK A01 T00220001  RH  086%=      5-min Rain = 0
KSM2 142253Z 17013KT 02/M00 A3016 RMK A01 T00221001  RH  085%=      5-min Rain = 0
KSM2 142254Z 17011KT 02/M00 A3016 RMK A01 T00221001  RH  085%=      5-min Rain = 0
KSM2 142255Z 18010KT 02/M00 A3016 RMK A01 T00211002  RH  085%=      5-min Rain = 0
KSM2 142256Z 18012KT 02/M00 A3015 RMK A01 T00211002  RH  085%=      5-min Rain = 0
KSM2 142257Z 18012KT 02/M00 A3015 RMK A01 T00211001  RH  085%=      5-min Rain = 0
KSM2 142258Z 18010KT 02/M00 A3015 RMK A01 T00211001  RH  085%=      5-min Rain = 0
KSM2 142259Z 18008KT 02/M00 A3015 RMK A01 T00211001  RH  085%=      5-min Rain = 0
KSM2 142300Z 17008G13KT 02/00 A3015 RMK A01 T00220000  RH  086%=      5-min Rain = 0
KSM2 142301Z 18011KT 02/00 A3015 RMK A01 T00230000  RH  085%=      5-min Rain = 0
KSM2 142302Z 17012KT 02/00 A3015 RMK A01 T00230000  RH  085%=      5-min Rain = 0
KSM2 142303Z 16012KT 02/M00 A3015 RMK A01 T00231001  RH  085%=      5-min Rain = 0
KSM2 142304Z 17011KT 02/M00 A3015 RMK A01 T00221002  RH  084%=      5-min Rain = 0
KSM2 142305Z 17012KT 02/M00 A3015 RMK A01 T00211001  RH  085%=      5-min Rain = 0
KSM2 142306Z 16011KT 02/M00 A3015 RMK A01 T00211001  RH  085%=      5-min Rain = 0
KSM2 142307Z 16009KT 02/M00 A3015 RMK A01 T00211001  RH  085%=      5-min Rain = 0
KSM2 142308Z 17011KT 02/00 A3015 RMK A01 T002200-0  RH  085%=      5-min Rain = 0
KSM2 142309Z 17010KT 02/00 A3015 RMK A01 T00230000  RH  085%=      5-min Rain = 0
KSM2 142310Z 17009KT 02/00 A3015 RMK A01 T00230000  RH  085%=      5-min Rain = 0
KSM2 142311Z 16009KT 02/00 A3015 RMK A01 T00230000  RH  085%=      5-min Rain = 0
KSM2 142312Z 16010KT 02/00 A3015 RMK A01 T00230000  RH  085%=      5-min Rain = 0
KSM2 142313Z 16012KT 02/00 A3015 RMK A01 T00230000  RH  085%=      5-min Rain = 0
KSM2 142314Z 16011KT 02/00 A3015 RMK A01 T00230000  RH  085%=      5-min Rain = 0
KSM2 142315Z 15012KT 02/00 A3015 RMK A01 T00230000  RH  085%=      5-min Rain = 0
KSM2 142316Z 16011KT 02/00 A3015 RMK A01 T002200-0  RH  085%=      5-min Rain = 0
KSM2 142317Z 16012KT 02/00 A3015 RMK A01 T002200-0  RH  085%=      5-min Rain = 0
KSM2 142318Z 16011KT 02/M00 A3015 RMK A01 T00221001  RH  085%=      5-min Rain = 0
KSM2 142319Z 16011KT 02/00 A3015 RMK A01 T002100-0  RH  086%=      5-min Rain = 0
KSM2 142320Z 16010KT 02/00 A3015 RMK A01 T002100-0  RH  086%=      5-min Rain = 0
KSM2 142321Z 15010KT 02/00 A3015 RMK A01 T002100-0  RH  086%=      5-min Rain = 0
KSM2 142322Z 15010KT 02/00 A3015 RMK A01 T002100-0  RH  086%=      5-min Rain = 0
KSM2 142323Z 16012KT 02/00 A3015 RMK A01 T002100-0  RH  086%=      5-min Rain = 0
KSM2 142324Z 16010KT 02/M00 A3015 RMK A01 T00201001  RH  086%=      5-min Rain = 0
KSM2 142325Z 17009KT 02/M00 A3015 RMK A01 T00201001  RH  086%=      5-min Rain = 0
KSM2 142326Z 17009KT 02/M00 A3015 RMK A01 T00201001  RH  086%=      5-min Rain = 0
KSM2 142327Z 16009KT 02/00 A3015 RMK A01 T002000-0  RH  086%=      5-min Rain = 0
KSM2 142328Z 16012KT 02/00 A3015 RMK A01 T002000-0  RH  086%=      5-min Rain = 0
KSM2 142329Z 15010KT 02/00 A3015 RMK A01 T002000-0  RH  086%=      5-min Rain = 0
KSM2 142330Z 15012KT 02/M00 A3015 RMK A01 T00201001  RH  086%=      5-min Rain = 0
KSM2 142331Z 16012KT 02/M00 A3015 RMK A01 T00201001  RH  086%=      5-min Rain = 0
KSM2 142332Z 16013KT 02/M00 A3015 RMK A01 T00191001  RH  086%=      5-min Rain = 0
KSM2 142333Z 17013KT 02/M00 A3015 RMK A01 T00191001  RH  086%=      5-min Rain = 0
KSM2 142334Z 17011KT 02/M00 A3015 RMK A01 T00191001  RH  086%=      5-min Rain = 0
KSM2 142335Z 17009KT 02/M00 A3015 RMK A01 T00201001  RH  086%=      5-min Rain = 0
KSM2 142336Z 16009KT 02/00 A3015 RMK A01 T002000-0  RH  087%=      5-min Rain = 0
KSM2 142337Z 15008KT 02/M00 A3015 RMK A01 T00191001  RH  086%=      5-min Rain = 0
KSM2 142338Z 16009G15KT 02/M00 A3015 RMK A01 T00201001  RH  086%=      5-min Rain = 0
KSM2 142339Z 16011KT 02/M00 A3015 RMK A01 T00201001  RH  086%=      5-min Rain = 0
KSM2 142340Z 17007KT 02/M00 A3015 RMK A01 T00201001  RH  087%=      5-min Rain = 0
KSM2 142341Z 17010KT 02/00 A3015 RMK A01 T002000-0  RH  087%=      5-min Rain = 0
KSM2 142342Z 17011G16KT 02/00 A3015 RMK A01 T002000-0  RH  087%=      5-min Rain = 0
KSM2 142343Z 16010KT 02/00 A3015 RMK A01 T002000-0  RH  086%=      5-min Rain = 0
KSM2 142344Z 17010KT 02/M00 A3015 RMK A01 T00201001  RH  086%=      5-min Rain = 0
KSM2 142345Z 17009KT 02/M00 A3015 RMK A01 T00191001  RH  086%=      5-min Rain = 0
KSM2 142346Z 16013KT 02/M00 A3015 RMK A01 T00191002  RH  086%=      5-min Rain = 0
KSM2 142347Z 16012KT 02/M00 A3015 RMK A01 T00191001  RH  086%=      5-min Rain = 0
KSM2 142348Z 18011KT 02/M00 A3015 RMK A01 T00191001  RH  087%=      5-min Rain = 0
KSM2 142349Z 18012KT 02/M00 A3015 RMK A01 T00191001  RH  086%=      5-min Rain = 0
KSM2 142350Z 17011KT 02/M00 A3015 RMK A01 T00191001  RH  087%=      5-min Rain = 0
KSM2 142351Z 16010KT 02/M00 A3015 RMK A01 T00191001  RH  087%=      5-min Rain = 0
KSM2 142352Z 16012KT 02/M00 A3015 RMK A01 T00191001  RH  087%=      5-min Rain = 0
KSM2 142353Z 17008KT 02/M00 A3015 RMK A01 T00191001  RH  087%=      5-min Rain = 0
KSM2 142354Z 16011KT 02/00 A3015 RMK A01 T001900-0  RH  087%=      5-min Rain = 0
KSM2 142355Z 16011KT 02/M00 A3015 RMK A01 T00191001  RH  087%=      5-min Rain = 0
KSM2 142356Z 17012KT 02/M00 A3015 RMK A01 T00191001  RH  087%=      5-min Rain = 0
KSM2 142357Z 17011KT 02/M00 A3015 RMK A01 T00191001  RH  087%=      5-min Rain = 0
KSM2 142358Z 16010KT 02/M00 A3015 RMK A01 T00191001  RH  087%=      5-min Rain = 0
KSM2 142359Z 18010KT 02/M00 A3015 RMK A01 T00181001  RH  087%=      5-min Rain = 0
KSM2 150000Z 16008KT 02/00 A3015 RMK A01 T001900-0  RH  087%=      5-min Rain = 0
KSM2 150001Z 16013KT 02/00 A3015 RMK A01 T001900-0  RH  087%=      5-min Rain = 0
KSM2 150002Z 15012KT 02/00 A3015 RMK A01 T001900-0  RH  087%=      5-min Rain = 0
KSM2 150003Z 15011KT 02/00 A3015 RMK A01 T001800-0  RH  088%=      5-min Rain = 0
KSM2 150004Z 16011G16KT 02/00 A3015 RMK A01 T001800-0  RH  088%=      5-min Rain = 0
KSM2 150005Z 16010KT 02/M00 A3015 RMK A01 T00171001  RH  088%=      5-min Rain = 0
KSM2 150006Z 17011KT 02/M00 A3015 RMK A01 T00171001  RH  088%=      5-min Rain = 0
KSM2 150007Z 16011KT 02/M00 A3015 RMK A01 T00161001  RH  088%=      5-min Rain = 0
KSM2 150008Z 17011KT 02/M00 A3015 RMK A01 T00161001  RH  088%=      5-min Rain = 0
KSM2 150009Z 17013KT 02/M00 A3015 RMK A01 T00161002  RH  088%=      5-min Rain = 0
KSM2 150010Z 18011KT 02/M00 A3015 RMK A01 T00161001  RH  088%=      5-min Rain = 0
KSM2 150011Z 17011KT 02/M00 A3015 RMK A01 T00161001  RH  089%=      5-min Rain = 0
KSM2 150012Z 18011G16KT 02/M00 A3015 RMK A01 T00161001  RH  089%=      5-min Rain = 0
KSM2 150013Z 18012KT 02/00 A3015 RMK A01 T001700-0  RH  088%=      5-min Rain = 0
KSM2 150014Z 17011KT 02/M00 A3015 RMK A01 T00161001  RH  088%=      5-min Rain = 0
KSM2 150015Z 17010KT 02/M00 A3015 RMK A01 T00161001  RH  088%=      5-min Rain = 0
KSM2 150016Z 18010KT 02/M00 A3015 RMK A01 T00171001  RH  088%=      5-min Rain = 0
KSM2 150017Z 17011KT 02/00 A3015 RMK A01 T00170000  RH  088%=      5-min Rain = 0
KSM2 150018Z 18009KT 02/00 A3015 RMK A01 T001700-0  RH  088%=      5-min Rain = 0
KSM2 150019Z 19010KT 02/00 A3015 RMK A01 T00180000  RH  088%=      5-min Rain = 0
KSM2 150020Z 18010KT 02/00 A3015 RMK A01 T00180000  RH  088%=      5-min Rain = 0
KSM2 150021Z 17009KT 02/00 A3015 RMK A01 T00180001  RH  088%=      5-min Rain = 0
KSM2 150022Z 17012KT 02/00 A3015 RMK A01 T00180000  RH  088%=      5-min Rain = 0
KSM2 150023Z 16012KT 02/00 A3015 RMK A01 T001800-0  RH  088%=      5-min Rain = 0
KSM2 150024Z 17010KT 02/00 A3015 RMK A01 T001800-0  RH  088%=      5-min Rain = 0
KSM2 150025Z 17012KT 02/00 A3015 RMK A01 T001800-0  RH  088%=      5-min Rain = 0
KSM2 150026Z 17012KT 02/00 A3015 RMK A01 T001800-0  RH  088%=      5-min Rain = 0
KSM2 150027Z 18012KT 02/00 A3015 RMK A01 T00180000  RH  088%=      5-min Rain = 0
KSM2 150028Z 18010KT 02/00 A3015 RMK A01 T001800-0  RH  088%=      5-min Rain = 0
KSM2 150029Z 18011KT 02/00 A3015 RMK A01 T00180000  RH  088%=      5-min Rain = 0
KSM2 150030Z 18014KT 02/00 A3015 RMK A01 T00180000  RH  088%=      5-min Rain = 0
KSM2 150031Z 18012KT 02/00 A3015 RMK A01 T00180001  RH  088%=      5-min Rain = 0
KSM2 150032Z 17010KT 02/00 A3015 RMK A01 T00180000  RH  088%=      5-min Rain = 0
KSM2 150033Z 17011KT 02/00 A3015 RMK A01 T00180000  RH  088%=      5-min Rain = 0
KSM2 150034Z 18011KT 02/00 A3015 RMK A01 T00180000  RH  088%=      5-min Rain = 0
KSM2 150035Z 18011KT 02/00 A3015 RMK A01 T00180001  RH  088%=      5-min Rain = 0
KSM2 150036Z 18010KT 02/00 A3015 RMK A01 T00180001  RH  089%=      5-min Rain = 0
KSM2 150037Z 18008KT 02/00 A3015 RMK A01 T00180001  RH  089%=      5-min Rain = 0
KSM2 150038Z 18010KT 02/00 A3015 RMK A01 T00180001  RH  089%=      5-min Rain = 0
KSM2 150039Z 18009KT 02/00 A3015 RMK A01 T00180001  RH  089%=      5-min Rain = 0
KSM2 150040Z 18009KT 02/00 A3015 RMK A01 T00180001  RH  089%=      5-min Rain = 0
KSM2 150041Z 18009KT 02/00 A3015 RMK A01 T00180001  RH  089%=      5-min Rain = 0
KSM2 150042Z 18011KT 02/00 A3015 RMK A01 T00180001  RH  089%=      5-min Rain = 0
KSM2 150043Z 18009KT 02/00 A3015 RMK A01 T00180001  RH  089%=      5-min Rain = 0
KSM2 150044Z 18009KT 02/00 A3015 RMK A01 T00180001  RH  089%=      5-min Rain = 0
KSM2 150045Z 18009KT 02/00 A3015 RMK A01 T00170001  RH  089%=      5-min Rain = 0
KSM2 150046Z 18010KT 02/00 A3015 RMK A01 T00170001  RH  089%=      5-min Rain = 0
KSM2 150047Z 18008KT 02/00 A3015 RMK A01 T00170001  RH  089%=      5-min Rain = 0
KSM2 150048Z 18010KT 02/00 A3015 RMK A01 T00170001  RH  089%=      5-min Rain = 0
KSM2 150049Z 18010KT 02/00 A3015 RMK A01 T00170001  RH  089%=      5-min Rain = 0
KSM2 150050Z 18008KT 02/00 A3015 RMK A01 T00170001  RH  089%=      5-min Rain = 0
KSM2 150051Z 19007KT 02/00 A3015 RMK A01 T00160001  RH  089%=      5-min Rain = 0
KSM2 150052Z 19008KT 02/00 A3015 RMK A01 T00160000  RH  089%=      5-min Rain = 0
KSM2 150053Z 19007KT 02/00 A3015 RMK A01 T00160000  RH  089%=      5-min Rain = 0
KSM2 150054Z 19007KT 02/M00 A3015 RMK A01 T00151001  RH  089%=      5-min Rain = 0
KSM2 150055Z 19007KT 01/M00 A3015 RMK A01 T00141001  RH  090%=      5-min Rain = 0
KSM2 150056Z 19006KT 01/M00 A3015 RMK A01 T00141001  RH  090%=      5-min Rain = 0
KSM2 150057Z 19007KT 01/M00 A3015 RMK A01 T00131001  RH  090%=      5-min Rain = 0
KSM2 150058Z 19007KT 01/M00 A3015 RMK A01 T00141001  RH  090%=      5-min Rain = 0
KSM2 150059Z 18007KT 01/M00 A3015 RMK A01 T00131001  RH  090%=      5-min Rain = 0
KSM2 150100Z 18006KT 01/M00 A3015 RMK A01 T00131001  RH  090%=      5-min Rain = 0
KSM2 150101Z 18006KT 01/M00 A3015 RMK A01 T00131001  RH  090%=      5-min Rain = 0
KSM2 150102Z 18005KT 01/M00 A3015 RMK A01 T00121002  RH  090%=      5-min Rain = 0
KSM2 150103Z 18005KT 01/M00 A3015 RMK A01 T00121002  RH  090%=      5-min Rain = 0
KSM2 150104Z 18005KT 01/M00 A3015 RMK A01 T00111002  RH  091%=      5-min Rain = 0
KSM2 150105Z 18005KT 01/M00 A3015 RMK A01 T00111003  RH  091%=      5-min Rain = 0
KSM2 150106Z 19005KT 01/M00 A3015 RMK A01 T00111003  RH  091%=      5-min Rain = 0
KSM2 150107Z 19005KT 01/M00 A3015 RMK A01 T00101003  RH  091%=      5-min Rain = 0
KSM2 150108Z 19006KT 01/M00 A3015 RMK A01 T00101003  RH  091%=      5-min Rain = 0
KSM2 150109Z 19005KT 01/M00 A3015 RMK A01 T00101003  RH  091%=      5-min Rain = 0
KSM2 150110Z 19005KT 01/M00 A3015 RMK A01 T00091004  RH  091%=      5-min Rain = 0
KSM2 150111Z 19005KT 01/M00 A3015 RMK A01 T00091004  RH  091%=      5-min Rain = 0
KSM2 150112Z 19005KT 01/M00 A3015 RMK A01 T00081004  RH  091%=      5-min Rain = 0
KSM2 150113Z 19005KT 01/M00 A3015 RMK A01 T00081004  RH  092%=      5-min Rain = 0
KSM2 150114Z 19005KT 01/M01 A3015 RMK A01 T00081005  RH  092%=      5-min Rain = 0
KSM2 150115Z 19005KT 01/M01 A3015 RMK A01 T00071005  RH  092%=      5-min Rain = 0
KSM2 150116Z 19005KT 01/M01 A3015 RMK A01 T00071005  RH  092%=      5-min Rain = 0
KSM2 150117Z 19005KT 01/M01 A3015 RMK A01 T00061006  RH  092%=      5-min Rain = 0
KSM2 150118Z 19005KT 01/M01 A3015 RMK A01 T00061005  RH  092%=      5-min Rain = 0
KSM2 150119Z 19005KT 01/M01 A3015 RMK A01 T00061005  RH  092%=      5-min Rain = 0
KSM2 150120Z 19004KT 01/M01 A3015 RMK A01 T00061006  RH  092%=      5-min Rain = 0
KSM2 150121Z 19004KT 01/M01 A3015 RMK A01 T00051006  RH  092%=      5-min Rain = 0
KSM2 150122Z 19005KT 01/M01 A3015 RMK A01 T00051006  RH  092%=      5-min Rain = 0
KSM2 150123Z 19005KT 01/M01 A3015 RMK A01 T00051006  RH  092%=      5-min Rain = 0
KSM2 150124Z 19005KT 00/M01 A3015 RMK A01 T00041006  RH  092%=      5-min Rain = 0
KSM2 150125Z 20005KT 00/M01 A3015 RMK A01 T00041007  RH  093%=      5-min Rain = 0
KSM2 150126Z 20005KT 00/M01 A3015 RMK A01 T00041006  RH  093%=      5-min Rain = 0
KSM2 150127Z 21004KT 00/M01 A3015 RMK A01 T00031007  RH  093%=      5-min Rain = 0
KSM2 150128Z 20005KT 00/M01 A3015 RMK A01 T00041007  RH  093%=      5-min Rain = 0
KSM2 150129Z 20004KT 00/M01 A3015 RMK A01 T00041006  RH  093%=      5-min Rain = 0
KSM2 150130Z 20004KT 00/M01 A3015 RMK A01 T00041005  RH  093%=      5-min Rain = 0
KSM2 150131Z 20004KT 00/M01 A3015 RMK A01 T00041005  RH  093%=      5-min Rain = 0
KSM2 150132Z 21005KT 00/M01 A3015 RMK A01 T00041005  RH  093%=      5-min Rain = 0
KSM2 150133Z 21005KT 00/M01 A3015 RMK A01 T00041006  RH  093%=      5-min Rain = 0
KSM2 150134Z 21005KT 00/M01 A3015 RMK A01 T00041006  RH  093%=      5-min Rain = 0
KSM2 150135Z 21005KT 00/M01 A3015 RMK A01 T00031006  RH  093%=      5-min Rain = 0
KSM2 150136Z 20005KT 00/M01 A3015 RMK A01 T00041006  RH  093%=      5-min Rain = 0
KSM2 150137Z 20004KT 00/M01 A3015 RMK A01 T00031006  RH  093%=      5-min Rain = 0
KSM2 150138Z 20004KT 00/M01 A3015 RMK A01 T00031007  RH  093%=      5-min Rain = 0
KSM2 150139Z 19004KT 00/M01 A3015 RMK A01 T00021008  RH  093%=      5-min Rain = 0
KSM2 150140Z 18004KT 00/M01 A3015 RMK A01 T00011009  RH  093%=      5-min Rain = 0
KSM2 150141Z 18004KT 00/M01 A3015 RMK A01 T00011009  RH  093%=      5-min Rain = 0
KSM2 150142Z 18004KT 00/M01 A3015 RMK A01 T00011009  RH  093%=      5-min Rain = 0
KSM2 150143Z 18004KT 00/M01 A3015 RMK A01 T00011009  RH  093%=      5-min Rain = 0
KSM2 150144Z 18004KT 00/M01 A3015 RMK A01 T00011008  RH  094%=      5-min Rain = 0
KSM2 150145Z 17004KT 00/M01 A3015 RMK A01 T00011007  RH  094%=      5-min Rain = 0
KSM2 150146Z 17004KT 00/M01 A3015 RMK A01 T00021007  RH  094%=      5-min Rain = 0
KSM2 150147Z 17004KT 00/M01 A3015 RMK A01 T00021006  RH  094%=      5-min Rain = 0
KSM2 150148Z 18004KT 00/M01 A3015 RMK A01 T00031005  RH  094%=      5-min Rain = 0
KSM2 150149Z 18004KT 00/M01 A3015 RMK A01 T00041005  RH  094%=      5-min Rain = 0
KSM2 150150Z 18004KT 00/M01 A3015 RMK A01 T00041005  RH  094%=      5-min Rain = 0
KSM2 150151Z 17004KT 01/M00 A3015 RMK A01 T00051004  RH  094%=      5-min Rain = 0
KSM2 150152Z 18003KT 01/M00 A3015 RMK A01 T00051004  RH  094%=      5-min Rain = 0
KSM2 150153Z 18003KT 00/M01 A3015 RMK A01 T00041005  RH  094%=      5-min Rain = 0
KSM2 150154Z 18003KT 00/M01 A3015 RMK A01 T00041005  RH  093%=      5-min Rain = 0
KSM2 150155Z 17003KT 00/M01 A3015 RMK A01 T00041005  RH  093%=      5-min Rain = 0
KSM2 150156Z 17003KT 00/M01 A3015 RMK A01 T00041005  RH  093%=      5-min Rain = 0
KSM2 150157Z 16003KT 00/M01 A3015 RMK A01 T00041005  RH  094%=      5-min Rain = 0
KSM2 150158Z 16003KT 01/M01 A3015 RMK A01 T00051005  RH  093%=      5-min Rain = 0
KSM2 150159Z 16003KT 00/M01 A3015 RMK A01 T00041005  RH  093%=      5-min Rain = 0
KSM2 150200Z 16003KT 00/M01 A3015 RMK A01 T00041006  RH  093%=      5-min Rain = 0
KSM2 150201Z 16003KT 00/M01 A3015 RMK A01 T00041006  RH  093%=      5-min Rain = 0
KSM2 150202Z 15003KT 00/M01 A3015 RMK A01 T00041006  RH  093%=      5-min Rain = 0
KSM2 150203Z 16003KT 00/M01 A3015 RMK A01 T00041006  RH  093%=      5-min Rain = 0
KSM2 150204Z 15003KT 00/M01 A3015 RMK A01 T00031006  RH  093%=      5-min Rain = 0
KSM2 150205Z 15003KT 00/M01 A3015 RMK A01 T00031007  RH  093%=      5-min Rain = 0
KSM2 150206Z 15002KT 00/M01 A3015 RMK A01 T00031007  RH  093%=      5-min Rain = 0
KSM2 150207Z 15003KT 00/M01 A3015 RMK A01 T00021007  RH  093%=      5-min Rain = 0
KSM2 150208Z 15003KT 00/M01 A3015 RMK A01 T00021008  RH  093%=      5-min Rain = 0
KSM2 150209Z 16003KT 00/M01 A3014 RMK A01 T00021008  RH  093%=      5-min Rain = 0
KSM2 150210Z 16003KT 00/M01 A3014 RMK A01 T00011008  RH  094%=      5-min Rain = 0
KSM2 150211Z 15003KT 00/M01 A3014 RMK A01 T00011008  RH  094%=      5-min Rain = 0
KSM2 150212Z 15003KT 00/01 A3014 RMK A01 T000000-9  RH  094%=      5-min Rain = 0
KSM2 150213Z 15004KT 00/01 A3014 RMK A01 T000000-9  RH  094%=      5-min Rain = 0
KSM2 150214Z 14004KT M00/M01 A3014 RMK A01 T10011010  RH  094%=      5-min Rain = 0
KSM2 150215Z 14004KT M00/M01 A3014 RMK A01 T10011010  RH  094%=      5-min Rain = 0
KSM2 150216Z 14005KT M00/M01 A3014 RMK A01 T10011010  RH  094%=      5-min Rain = 0
KSM2 150217Z 14005KT M00/M01 A3014 RMK A01 T10011010  RH  094%=      5-min Rain = 0
KSM2 150218Z 14005KT M00/M01 A3014 RMK A01 T10021010  RH  094%=      5-min Rain = 0
KSM2 150219Z 14005KT M00/M01 A3014 RMK A01 T10011009  RH  095%=      5-min Rain = 0
KSM2 150220Z 15005KT M00/M01 A3014 RMK A01 T10011008  RH  095%=      5-min Rain = 0
KSM2 150221Z 15005KT 00/01 A3014 RMK A01 T00-000-8  RH  095%=      5-min Rain = 0
KSM2 150222Z 15005KT 00/01 A3014 RMK A01 T000000-7  RH  095%=      5-min Rain = 0
KSM2 150223Z 15005KT 00/M01 A3014 RMK A01 T00011007  RH  095%=      5-min Rain = 0
KSM2 150224Z 15004KT 00/M01 A3014 RMK A01 T00011007  RH  095%=      5-min Rain = 0
KSM2 150225Z 15005KT 00/M01 A3014 RMK A01 T00011007  RH  095%=      5-min Rain = 0
KSM2 150226Z 15005KT 00/M01 A3014 RMK A01 T00011007  RH  094%=      5-min Rain = 0
KSM2 150227Z 15004KT 00/M01 A3014 RMK A01 T00011007  RH  095%=      5-min Rain = 0
KSM2 150228Z 15006KT 00/M01 A3014 RMK A01 T00021006  RH  095%=      5-min Rain = 0
KSM2 150229Z 15005KT 00/M01 A3014 RMK A01 T00031005  RH  095%=      5-min Rain = 0
KSM2 150230Z 15004KT 00/M01 A3014 RMK A01 T00031005  RH  095%=      5-min Rain = 0
KSM2 150231Z 15004KT 00/M01 A3014 RMK A01 T00031005  RH  094%=      5-min Rain = 0
KSM2 150232Z 16003KT 00/M01 A3014 RMK A01 T00031005  RH  094%=      5-min Rain = 0
KSM2 150233Z 17004KT 00/M01 A3014 RMK A01 T00041005  RH  094%=      5-min Rain = 0
KSM2 150234Z 16003KT 01/M00 A3014 RMK A01 T00051004  RH  094%=      5-min Rain = 0
KSM2 150235Z 17003KT 01/M00 A3014 RMK A01 T00051003  RH  094%=      5-min Rain = 0
KSM2 150236Z 17003KT 01/M00 A3014 RMK A01 T00051003  RH  094%=      5-min Rain = 0
KSM2 150237Z 16004KT 01/M00 A3014 RMK A01 T00061003  RH  094%=      5-min Rain = 0
KSM2 150238Z 17004KT 01/M00 A3015 RMK A01 T00061003  RH  094%=      5-min Rain = 0
KSM2 150239Z 17003KT 01/M00 A3015 RMK A01 T00071003  RH  094%=      5-min Rain = 0
KSM2 150240Z 17004KT 01/M00 A3014 RMK A01 T00071003  RH  093%=      5-min Rain = 0
KSM2 150241Z 18003KT 01/M00 A3014 RMK A01 T00071003  RH  093%=      5-min Rain = 0
KSM2 150242Z 18002KT 01/M00 A3014 RMK A01 T00061004  RH  093%=      5-min Rain = 0
KSM2 150243Z 17003KT 01/M01 A3015 RMK A01 T00061005  RH  093%=      5-min Rain = 0
KSM2 150244Z 18003KT 01/M01 A3015 RMK A01 T00051005  RH  093%=      5-min Rain = 0
KSM2 150245Z 18003KT 01/M01 A3015 RMK A01 T00051005  RH  093%=      5-min Rain = 0
KSM2 150246Z 19002KT 01/M01 A3015 RMK A01 T00051005  RH  093%=      5-min Rain = 0
KSM2 150247Z 18002KT 00/M01 A3015 RMK A01 T00041006  RH  093%=      5-min Rain = 0
KSM2 150248Z 18002KT 00/M01 A3015 RMK A01 T00041007  RH  093%=      5-min Rain = 0
KSM2 150249Z 19002KT 00/M01 A3015 RMK A01 T00031007  RH  093%=      5-min Rain = 0
KSM2 150250Z 18002KT 00/M01 A3015 RMK A01 T00031007  RH  093%=      5-min Rain = 0
KSM2 150251Z 21002KT 00/M01 A3015 RMK A01 T00021008  RH  093%=      5-min Rain = 0
KSM2 150252Z 21002KT 00/M01 A3015 RMK A01 T00021009  RH  093%=      5-min Rain = 0
KSM2 150253Z 20002KT 00/M01 A3015 RMK A01 T00011008  RH  093%=      5-min Rain = 0
KSM2 150254Z 19002KT 00/M01 A3015 RMK A01 T00011009  RH  093%=      5-min Rain = 0
KSM2 150255Z 20002KT 00/01 A3015 RMK A01 T000000-9  RH  093%=      5-min Rain = 0
KSM2 150256Z 20002KT 00/01 A3015 RMK A01 T000000-9  RH  094%=      5-min Rain = 0
KSM2 150257Z 20002KT 00/01 A3015 RMK A01 T00-000-9  RH  094%=      5-min Rain = 0
KSM2 150258Z 20002KT 00/01 A3015 RMK A01 T00-000-9  RH  094%=      5-min Rain = 0
KSM2 150259Z 19002KT M00/M01 A3015 RMK A01 T10011010  RH  094%=      5-min Rain = 0
KSM2 150300Z 18003KT M00/M01 A3015 RMK A01 T10011010  RH  094%=      5-min Rain = 0
KSM2 150301Z 17003KT M00/M01 A3015 RMK A01 T10021010  RH  094%=      5-min Rain = 0
KSM2 150302Z 17003KT M00/M01 A3015 RMK A01 T10021010  RH  094%=      5-min Rain = 0
KSM2 150303Z 16003KT M00/M01 A3015 RMK A01 T10021010  RH  094%=      5-min Rain = 0
KSM2 150304Z 16003KT M00/M01 A3015 RMK A01 T10021010  RH  094%=      5-min Rain = 0
KSM2 150305Z 16003KT M00/M01 A3015 RMK A01 T10021010  RH  094%=      5-min Rain = 0
KSM2 150306Z 16004KT M00/M01 A3015 RMK A01 T10021010  RH  095%=      5-min Rain = 0
KSM2 150307Z 16004KT M00/M01 A3015 RMK A01 T10021009  RH  095%=      5-min Rain = 0
KSM2 150308Z 16003KT M00/M01 A3015 RMK A01 T10021009  RH  095%=      5-min Rain = 0
KSM2 150309Z 16004KT M00/M01 A3015 RMK A01 T10021009  RH  095%=      5-min Rain = 0
KSM2 150310Z 14004KT M00/M01 A3015 RMK A01 T10011009  RH  095%=      5-min Rain = 0
KSM2 150311Z 11003KT M00/M01 A3015 RMK A01 T10011009  RH  095%=      5-min Rain = 0
KSM2 150312Z 11004KT M00/M01 A3015 RMK A01 T10031012  RH  094%=      5-min Rain = 0
KSM2 150313Z 12003KT M01/M01 A3015 RMK A01 T10051014  RH  094%=      5-min Rain = 0
KSM2 150314Z 12003KT M01/M01 A3015 RMK A01 T10051014  RH  094%=      5-min Rain = 0
KSM2 150315Z 13003KT M01/M01 A3015 RMK A01 T10061014  RH  094%=      5-min Rain = 0
KSM2 150316Z 12004KT M01/M01 A3015 RMK A01 T10061014  RH  094%=      5-min Rain = 0
KSM2 150317Z 12005KT M01/M02 A3015 RMK A01 T10071015  RH  094%=      5-min Rain = 0
KSM2 150318Z 12004KT M01/M02 A3015 RMK A01 T10071015  RH  094%=      5-min Rain = 0
KSM2 150319Z 12004KT M01/M02 A3015 RMK A01 T10071015  RH  095%=      5-min Rain = 0
KSM2 150320Z 12004KT M01/M02 A3015 RMK A01 T10071015  RH  095%=      5-min Rain = 0
KSM2 150321Z 11004KT M01/M02 A3015 RMK A01 T10081015  RH  095%=      5-min Rain = 0
KSM2 150322Z 12004KT M01/M02 A3015 RMK A01 T10081015  RH  095%=      5-min Rain = 0
KSM2 150323Z 12004KT M01/M02 A3015 RMK A01 T10081015  RH  095%=      5-min Rain = 0
KSM2 150324Z 12004KT M01/M02 A3015 RMK A01 T10081015  RH  095%=      5-min Rain = 0
KSM2 150325Z 12005KT M01/M02 A3015 RMK A01 T10091015  RH  095%=      5-min Rain = 0
KSM2 150326Z 12004KT M01/M02 A3015 RMK A01 T10091015  RH  095%=      5-min Rain = 0
KSM2 150327Z 12004KT M01/M02 A3015 RMK A01 T10091015  RH  096%=      5-min Rain = 0
KSM2 150328Z 12004KT M01/M02 A3015 RMK A01 T10091015  RH  096%=      5-min Rain = 0
KSM2 150329Z 12004KT M01/M02 A3015 RMK A01 T10091015  RH  096%=      5-min Rain = 0
KSM2 150330Z 12004KT M01/M02 A3015 RMK A01 T10091015  RH  096%=      5-min Rain = 0
KSM2 150331Z 12004KT M01/M02 A3015 RMK A01 T10091015  RH  096%=      5-min Rain = 0
KSM2 150332Z 12004KT M01/M02 A3015 RMK A01 T10101016  RH  096%=      5-min Rain = 0
KSM2 150333Z 12004KT M01/M02 A3015 RMK A01 T10101016  RH  096%=      5-min Rain = 0
KSM2 150334Z 12004KT M01/M02 A3015 RMK A01 T10101016  RH  096%=      5-min Rain = 0
KSM2 150335Z 12004KT M01/M02 A3015 RMK A01 T10101016  RH  096%=      5-min Rain = 0
KSM2 150336Z 12004KT M01/M02 A3015 RMK A01 T10101016  RH  096%=      5-min Rain = 0
KSM2 150337Z 12004KT M01/M02 A3015 RMK A01 T10111017  RH  096%=      5-min Rain = 0
KSM2 150338Z 12004KT M01/M02 A3015 RMK A01 T10111017  RH  096%=      5-min Rain = 0
KSM2 150339Z 13003KT M01/M02 A3015 RMK A01 T10111016  RH  096%=      5-min Rain = 0
KSM2 150340Z 12004KT M01/M02 A3015 RMK A01 T10111016  RH  096%=      5-min Rain = 0
KSM2 150341Z 12003KT M01/M02 A3015 RMK A01 T10111016  RH  096%=      5-min Rain = 0
KSM2 150342Z 12004KT M01/M02 A3015 RMK A01 T10111017  RH  096%=      5-min Rain = 0
KSM2 150343Z 13004KT M01/M02 A3015 RMK A01 T10111017  RH  096%=      5-min Rain = 0
KSM2 150344Z 12004KT M01/M02 A3015 RMK A01 T10121018  RH  096%=      5-min Rain = 0
KSM2 150345Z 12004KT M01/M02 A3015 RMK A01 T10131018  RH  096%=      5-min Rain = 0
KSM2 150346Z 12003KT M01/M02 A3015 RMK A01 T10131019  RH  096%=      5-min Rain = 0
KSM2 150347Z 12004KT M01/M02 A3015 RMK A01 T10131019  RH  096%=      5-min Rain = 0
KSM2 150348Z 12004KT M01/M02 A3015 RMK A01 T10131019  RH  096%=      5-min Rain = 0
KSM2 150349Z 13004KT M01/M02 A3014 RMK A01 T10131018  RH  096%=      5-min Rain = 0
KSM2 150350Z 13004KT M01/M02 A3014 RMK A01 T10121018  RH  096%=      5-min Rain = 0
KSM2 150351Z 13005KT M01/M02 A3014 RMK A01 T10131018  RH  096%=      5-min Rain = 0
KSM2 150352Z 13004KT M01/M02 A3014 RMK A01 T10121017  RH  096%=      5-min Rain = 0
KSM2 150353Z 14005KT M01/M02 A3014 RMK A01 T10111016  RH  096%=      5-min Rain = 0
KSM2 150354Z 14005KT M01/M02 A3014 RMK A01 T10111016  RH  096%=      5-min Rain = 0
KSM2 150355Z 15005KT M01/M02 A3014 RMK A01 T10101015  RH  097%=      5-min Rain = 0
KSM2 150356Z 15006KT M01/M01 A3014 RMK A01 T10081013  RH  097%=      5-min Rain = 0
KSM2 150357Z 15005KT M01/M01 A3014 RMK A01 T10081013  RH  097%=      5-min Rain = 0
KSM2 150358Z 16006KT M01/M01 A3014 RMK A01 T10071012  RH  097%=      5-min Rain = 0
KSM2 150359Z 15006KT M01/M01 A3014 RMK A01 T10061011  RH  097%=      5-min Rain = 0
KSM2 150400Z 15007KT M01/M01 A3014 RMK A01 T10051009  RH  097%=      5-min Rain = 0
KSM2 150401Z 15006KT M00/M01 A3014 RMK A01 T10031008  RH  097%=      5-min Rain = 0
KSM2 150402Z 16007KT M00/M01 A3014 RMK A01 T10021007  RH  097%=      5-min Rain = 0
KSM2 150403Z 15007KT 00/01 A3014 RMK A01 T00-000-5  RH  097%=      5-min Rain = 0
KSM2 150404Z 15006KT 00/M00 A3014 RMK A01 T00011004  RH  097%=      5-min Rain = 0
KSM2 150405Z 15006KT 00/M01 A3014 RMK A01 T00011005  RH  096%=      5-min Rain = 0
KSM2 150406Z 15006KT 00/M00 A3014 RMK A01 T00021004  RH  096%=      5-min Rain = 0
KSM2 150407Z 14006KT 00/M00 A3014 RMK A01 T00021004  RH  096%=      5-min Rain = 0
KSM2 150408Z 15005KT 00/M01 A3014 RMK A01 T00021005  RH  096%=      5-min Rain = 0
KSM2 150409Z 15005KT 00/M01 A3014 RMK A01 T00011005  RH  095%=      5-min Rain = 0
KSM2 150410Z 16005KT 00/M01 A3014 RMK A01 T00011007  RH  095%=      5-min Rain = 0
KSM2 150411Z 17004KT 00/M01 A3014 RMK A01 T00011007  RH  095%=      5-min Rain = 0
KSM2 150412Z 17004KT 00/01 A3014 RMK A01 T000000-7  RH  095%=      5-min Rain = 0
KSM2 150413Z 17004KT 00/01 A3014 RMK A01 T00-000-8  RH  094%=      5-min Rain = 0
KSM2 150414Z 17004KT 00/01 A3014 RMK A01 T00-000-8  RH  094%=      5-min Rain = 0
KSM2 150415Z 18005KT 00/01 A3014 RMK A01 T00-000-8  RH  095%=      5-min Rain = 0
KSM2 150416Z 18005KT M00/M01 A3014 RMK A01 T10011009  RH  094%=      5-min Rain = 0
KSM2 150417Z 18004KT M00/M01 A3014 RMK A01 T10021011  RH  094%=      5-min Rain = 0
KSM2 150418Z 17005KT M00/M01 A3014 RMK A01 T10031012  RH  094%=      5-min Rain = 0
KSM2 150419Z 17004KT M00/M01 A3014 RMK A01 T10041013  RH  094%=      5-min Rain = 0
KSM2 150420Z 17004KT M01/M01 A3014 RMK A01 T10051014  RH  094%=      5-min Rain = 0
KSM2 150421Z 17004KT M01/M02 A3014 RMK A01 T10061015  RH  094%=      5-min Rain = 0
KSM2 150422Z 17004KT M01/M02 A3014 RMK A01 T10071015  RH  094%=      5-min Rain = 0
KSM2 150423Z 17004KT M01/M02 A3014 RMK A01 T10071016  RH  094%=      5-min Rain = 0
KSM2 150424Z 17005KT M01/M02 A3013 RMK A01 T10081016  RH  094%=      5-min Rain = 0
KSM2 150425Z 17005KT M01/M02 A3013 RMK A01 T10071015  RH  095%=      5-min Rain = 0
KSM2 150426Z 17004KT M01/M02 A3013 RMK A01 T10071015  RH  095%=      5-min Rain = 0
KSM2 150427Z 18005KT M01/M02 A3013 RMK A01 T10071015  RH  095%=      5-min Rain = 0
KSM2 150428Z 18005KT M01/M02 A3013 RMK A01 T10071015  RH  095%=      5-min Rain = 0
KSM2 150429Z 19004KT M01/M02 A3013 RMK A01 T10071015  RH  095%=      5-min Rain = 0
KSM2 150430Z 18004KT M01/M02 A3013 RMK A01 T10081015  RH  095%=      5-min Rain = 0
KSM2 150431Z 18004KT M01/M02 A3013 RMK A01 T10091016  RH  095%=      5-min Rain = 0
KSM2 150432Z 18004KT M01/M02 A3013 RMK A01 T10091016  RH  095%=      5-min Rain = 0
KSM2 150433Z 18005KT M01/M02 A3013 RMK A01 T10091016  RH  095%=      5-min Rain = 0
KSM2 150434Z 18004KT M01/M02 A3013 RMK A01 T10081015  RH  095%=      5-min Rain = 0
KSM2 150435Z 18005KT M01/M01 A3013 RMK A01 T10071014  RH  095%=      5-min Rain = 0
KSM2 150436Z 17005KT M01/M01 A3013 RMK A01 T10061012  RH  096%=      5-min Rain = 0
KSM2 150437Z 17006KT M01/M01 A3013 RMK A01 T10051011  RH  096%=      5-min Rain = 0
KSM2 150438Z 17006KT M00/M01 A3013 RMK A01 T10031009  RH  096%=      5-min Rain = 0
KSM2 150439Z 17007KT M00/M01 A3013 RMK A01 T10021008  RH  096%=      5-min Rain = 0
KSM2 150440Z 17006KT M00/M01 A3013 RMK A01 T10011007  RH  096%=      5-min Rain = 0
KSM2 150441Z 17005KT M00/M01 A3013 RMK A01 T10011007  RH  096%=      5-min Rain = 0
KSM2 150442Z 17006KT 00/01 A3013 RMK A01 T00-000-7  RH  095%=      5-min Rain = 0
KSM2 150443Z 17007KT M00/M01 A3013 RMK A01 T10011008  RH  095%=      5-min Rain = 0
KSM2 150444Z 17006KT 00/01 A3013 RMK A01 T00-000-7  RH  095%=      5-min Rain = 0
KSM2 150445Z 17006KT 00/M01 A3013 RMK A01 T00011006  RH  095%=      5-min Rain = 0
KSM2 150446Z 17006KT 00/M01 A3013 RMK A01 T00011007  RH  095%=      5-min Rain = 0
KSM2 150447Z 17006KT 00/M01 A3013 RMK A01 T00011007  RH  095%=      5-min Rain = 0
KSM2 150448Z 17006KT 00/M01 A3013 RMK A01 T00011006  RH  095%=      5-min Rain = 0
KSM2 150449Z 17006KT 00/M01 A3013 RMK A01 T00021006  RH  095%=      5-min Rain = 0
KSM2 150450Z 17007KT 00/M01 A3013 RMK A01 T00021006  RH  094%=      5-min Rain = 0
KSM2 150451Z 18006KT 00/M01 A3013 RMK A01 T00031005  RH  094%=      5-min Rain = 0
KSM2 150452Z 18005KT 00/M00 A3013 RMK A01 T00041004  RH  094%=      5-min Rain = 0
KSM2 150453Z 18006KT 00/M01 A3013 RMK A01 T00041005  RH  094%=      5-min Rain = 0
KSM2 150454Z 18006KT 00/M01 A3013 RMK A01 T00041005  RH  094%=      5-min Rain = 0
KSM2 150455Z 18007KT 01/M00 A3013 RMK A01 T00051004  RH  094%=      5-min Rain = 0
KSM2 150456Z 17007KT 01/M00 A3013 RMK A01 T00051004  RH  094%=      5-min Rain = 0
KSM2 150457Z 17006KT 01/M00 A3013 RMK A01 T00051004  RH  094%=      5-min Rain = 0
KSM2 150458Z 18007KT 01/M00 A3012 RMK A01 T00061003  RH  094%=      5-min Rain = 0
KSM2 150459Z 18007KT 01/M00 A3012 RMK A01 T00071002  RH  094%=      5-min Rain = 0
KSM2 150500Z 17008KT 01/00 A3012 RMK A01 T00090000  RH  094%=      5-min Rain = 0
KSM2 150501Z 18008KT 01/00 A3012 RMK A01 T00100001  RH  094%=      5-min Rain = 0
KSM2 150502Z 17008KT 01/00 A3012 RMK A01 T00120002  RH  093%=      5-min Rain = 0
KSM2 150503Z 17008KT 01/00 A3012 RMK A01 T00120002  RH  093%=      5-min Rain = 0
KSM2 150504Z 17009KT 01/00 A3012 RMK A01 T00130003  RH  093%=      5-min Rain = 0
KSM2 150505Z 17009KT 01/00 A3012 RMK A01 T00140002  RH  092%=      5-min Rain = 0
KSM2 150506Z 17010KT 01/00 A3012 RMK A01 T00140003  RH  092%=      5-min Rain = 0
KSM2 150507Z 17010KT 02/00 A3012 RMK A01 T00150004  RH  092%=      5-min Rain = 0
KSM2 150508Z 16009KT 02/00 A3012 RMK A01 T00160004  RH  092%=      5-min Rain = 0
KSM2 150509Z 17010KT 02/00 A3012 RMK A01 T00170004  RH  091%=      5-min Rain = 0
KSM2 150510Z 17009KT 02/01 A3012 RMK A01 T00170005  RH  091%=      5-min Rain = 0
KSM2 150511Z 17009KT 02/01 A3012 RMK A01 T00180005  RH  091%=      5-min Rain = 0
KSM2 150512Z 17010KT 02/01 A3012 RMK A01 T00180005  RH  091%=      5-min Rain = 0
KSM2 150513Z 17008KT 02/01 A3012 RMK A01 T00180005  RH  091%=      5-min Rain = 0
KSM2 150514Z 17010KT 02/01 A3012 RMK A01 T00190006  RH  091%=      5-min Rain = 0
KSM2 150515Z 18008KT 02/01 A3012 RMK A01 T00190006  RH  091%=      5-min Rain = 0
KSM2 150516Z 18010KT 02/01 A3012 RMK A01 T00190005  RH  091%=      5-min Rain = 0
KSM2 150517Z 18009KT 02/01 A3012 RMK A01 T00190005  RH  091%=      5-min Rain = 0
KSM2 150518Z 18010KT 02/01 A3012 RMK A01 T00190005  RH  091%=      5-min Rain = 0
KSM2 150519Z 18009KT 02/01 A3012 RMK A01 T00190006  RH  091%=      5-min Rain = 0
KSM2 150520Z 17009KT 02/01 A3012 RMK A01 T00190006  RH  091%=      5-min Rain = 0
KSM2 150521Z 17009KT 02/01 A3012 RMK A01 T00190006  RH  091%=      5-min Rain = 0
KSM2 150522Z 17010KT 02/01 A3012 RMK A01 T00190006  RH  091%=      5-min Rain = 0
KSM2 150523Z 18008KT 02/01 A3012 RMK A01 T00190006  RH  091%=      5-min Rain = 0
KSM2 150524Z 18008KT 02/01 A3012 RMK A01 T00190006  RH  091%=      5-min Rain = 0
KSM2 150525Z 17008KT 02/01 A3012 RMK A01 T00190006  RH  091%=      5-min Rain = 0
KSM2 150526Z 18009KT 02/01 A3012 RMK A01 T00190006  RH  091%=      5-min Rain = 0
KSM2 150527Z 17009KT 02/01 A3012 RMK A01 T00190006  RH  091%=      5-min Rain = 0
KSM2 150528Z 17009KT 02/01 A3011 RMK A01 T00190006  RH  091%=      5-min Rain = 0
KSM2 150529Z 18010KT 02/01 A3011 RMK A01 T00200007  RH  091%=      5-min Rain = 0
KSM2 150530Z 17009KT 02/01 A3011 RMK A01 T00200007  RH  091%=      5-min Rain = 0
KSM2 150531Z 17009KT 02/01 A3011 RMK A01 T00200007  RH  091%=      5-min Rain = 0
KSM2 150532Z 17010KT 02/01 A3011 RMK A01 T00200007  RH  091%=      5-min Rain = 0
KSM2 150533Z 17009KT 02/01 A3011 RMK A01 T00200007  RH  091%=      5-min Rain = 0
KSM2 150534Z 17010KT 02/01 A3011 RMK A01 T00210008  RH  091%=      5-min Rain = 0
KSM2 150535Z 18009KT 02/01 A3011 RMK A01 T00210007  RH  091%=      5-min Rain = 0
KSM2 150536Z 18010KT 02/01 A3011 RMK A01 T00210007  RH  091%=      5-min Rain = 0
KSM2 150537Z 18010KT 02/01 A3011 RMK A01 T00210007  RH  091%=      5-min Rain = 0
KSM2 150538Z 18009KT 02/01 A3011 RMK A01 T00210007  RH  091%=      5-min Rain = 0
KSM2 150539Z 18010KT 02/01 A3011 RMK A01 T00210007  RH  091%=      5-min Rain = 0
KSM2 150540Z 18010KT 02/01 A3011 RMK A01 T00210007  RH  091%=      5-min Rain = 0
KSM2 150541Z 19009KT 02/01 A3011 RMK A01 T00200007  RH  091%=      5-min Rain = 0
KSM2 150542Z 18010KT 02/01 A3011 RMK A01 T00200006  RH  091%=      5-min Rain = 0
KSM2 150543Z 19011KT 02/01 A3011 RMK A01 T00200006  RH  091%=      5-min Rain = 0
KSM2 150544Z 19009KT 02/01 A3011 RMK A01 T00190006  RH  091%=      5-min Rain = 0
KSM2 150545Z 18008KT 02/01 A3011 RMK A01 T00180005  RH  091%=      5-min Rain = 0
KSM2 150546Z 18007KT 02/00 A3011 RMK A01 T00170004  RH  091%=      5-min Rain = 0
KSM2 150547Z 18009KT 02/00 A3011 RMK A01 T00160004  RH  091%=      5-min Rain = 0
KSM2 150548Z 19008KT 02/00 A3011 RMK A01 T00160004  RH  092%=      5-min Rain = 0
KSM2 150549Z 19009KT 02/00 A3011 RMK A01 T00160004  RH  092%=      5-min Rain = 0
KSM2 150550Z 19008KT 02/01 A3011 RMK A01 T00160005  RH  092%=      5-min Rain = 0
KSM2 150551Z 18007KT 02/01 A3011 RMK A01 T00160005  RH  092%=      5-min Rain = 0
KSM2 150552Z 18008KT 02/00 A3011 RMK A01 T00160004  RH  092%=      5-min Rain = 0
KSM2 150553Z 18008KT 02/00 A3011 RMK A01 T00160004  RH  092%=      5-min Rain = 0
KSM2 150554Z 19008KT 02/01 A3011 RMK A01 T00160005  RH  092%=      5-min Rain = 0
KSM2 150555Z 19009KT 02/01 A3011 RMK A01 T00160005  RH  092%=      5-min Rain = 0
KSM2 150556Z 19009KT 02/01 A3011 RMK A01 T00160005  RH  092%=      5-min Rain = 0
KSM2 150557Z 18010KT 02/01 A3011 RMK A01 T00160005  RH  092%=      5-min Rain = 0
KSM2 150558Z 18009KT 02/01 A3011 RMK A01 T00170006  RH  092%=      5-min Rain = 0
KSM2 150559Z 19009KT 02/01 A3011 RMK A01 T00170006  RH  092%=      5-min Rain = 0

Page generated in 0.1055 seconds.